Wetterdaten: Donnerstag, 17.02.2022
Datum Zeit Temp. Aussen Temp. o. S. Temp +5cm Feuchte Auss Luftdruck Regen Sonnenschein Regendauer Solar Windben Empfang
17.02.2022 00:00 12,9 C 11,7 C 9,4 C 94 % 994,5 hPa 0,0 l/m 0 min 0 min 0 W/m 32,2 km/h (5 Bft) 95,65 %
17.02.2022 00:02 12,9 C 11,7 C 9,4 C 93 % 994,1 hPa 0,0 l/m 0 min 0 min 0 W/m 45,1 km/h (6 Bft) 97,06 %
17.02.2022 00:04 12,9 C 11,7 C 9,4 C 93 % 994,1 hPa 0,0 l/m 0 min 0 min 0 W/m 29,0 km/h (5 Bft) 97,87 %
17.02.2022 00:08 12,9 C 11,7 C 9,4 C 93 % 994,1 hPa 0,0 l/m 0 min 0 min 0 W/m 35,4 km/h (5 Bft) 98,00 %
17.02.2022 00:10 12,9 C 11,7 C 8,9 C 92 % 994,0 hPa 0,0 l/m 0 min 0 min 0 W/m 29,0 km/h (5 Bft) 100,00 %
17.02.2022 00:12 12,9 C 12,2 C 9,4 C 92 % 994,1 hPa 0,0 l/m 0 min 0 min 0 W/m 35,4 km/h (5 Bft) 100,00 %
17.02.2022 00:14 12,9 C 12,2 C 8,9 C 92 % 994,0 hPa 0,0 l/m 0 min 0 min 0 W/m 25,7 km/h (4 Bft) 100,00 %
17.02.2022 00:16 12,9 C 12,2 C 8,9 C 92 % 994,3 hPa 0,0 l/m 0 min 0 min 0 W/m 35,4 km/h (5 Bft) 100,00 %
17.02.2022 00:18 12,9 C 12,2 C 8,9 C 92 % 994,1 hPa 0,0 l/m 0 min 0 min 0 W/m 29,0 km/h (5 Bft) 100,00 %
17.02.2022 00:20 12,9 C 11,7 C 8,9 C 91 % 994,2 hPa 0,0 l/m 0 min 0 min 0 W/m 29,0 km/h (5 Bft) 100,00 %
17.02.2022 00:22 12,9 C 11,7 C 8,9 C 92 % 994,3 hPa 0,0 l/m 0 min 0 min 0 W/m 35,4 km/h (5 Bft) 100,00 %
17.02.2022 00:24 12,9 C 11,7 C 8,9 C 91 % 994,2 hPa 0,0 l/m 0 min 0 min 0 W/m 25,7 km/h (4 Bft) 100,00 %
17.02.2022 00:26 12,9 C 11,7 C 8,9 C 91 % 994,0 hPa 0,0 l/m 0 min 0 min 0 W/m 25,7 km/h (4 Bft) 97,87 %
17.02.2022 00:28 12,8 C 11,7 C 8,9 C 91 % 994,5 hPa 0,0 l/m 0 min 0 min 0 W/m 38,6 km/h (5 Bft) 100,00 %
17.02.2022 00:30 12,8 C 11,7 C 8,9 C 91 % 994,4 hPa 0,0 l/m 0 min 0 min 0 W/m 29,0 km/h (5 Bft) 100,00 %
17.02.2022 00:32 12,8 C 11,7 C 8,9 C 92 % 994,6 hPa 0,0 l/m 0 min 0 min 0 W/m 54,7 km/h (7 Bft) 100,00 %
17.02.2022 00:34 12,8 C 11,7 C 8,9 C 91 % 994,4 hPa 0,0 l/m 0 min 0 min 0 W/m 38,6 km/h (5 Bft) 100,00 %
17.02.2022 00:36 12,8 C 11,7 C 8,9 C 91 % 994,3 hPa 0,0 l/m 0 min 0 min 0 W/m 38,6 km/h (5 Bft) 100,00 %
17.02.2022 00:38 12,8 C 11,7 C 8,9 C 92 % 994,4 hPa 0,0 l/m 0 min 0 min 0 W/m 25,7 km/h (4 Bft) 100,00 %
17.02.2022 00:40 12,8 C 11,7 C 8,9 C 92 % 994,3 hPa 0,0 l/m 0 min 0 min 0 W/m 22,5 km/h (4 Bft) 100,00 %
17.02.2022 00:42 12,8 C 11,7 C 8,9 C 92 % 994,4 hPa 0,0 l/m 0 min 0 min 0 W/m 25,7 km/h (4 Bft) 100,00 %
17.02.2022 00:44 12,7 C 11,7 C 8,9 C 92 % 994,2 hPa 0,0 l/m 0 min 0 min 0 W/m 25,7 km/h (4 Bft) 100,00 %
17.02.2022 00:46 12,7 C 11,7 C 8,9 C 92 % 994,1 hPa 0,0 l/m 0 min 0 min 0 W/m 32,2 km/h (5 Bft) 100,00 %
17.02.2022 00:48 12,7 C 11,7 C 8,9 C 92 % 994,0 hPa 0,0 l/m 0 min 0 min 0 W/m 29,0 km/h (5 Bft) 100,00 %
17.02.2022 00:50 12,7 C 11,7 C 8,9 C 92 % 994,0 hPa 0,0 l/m 0 min 0 min 0 W/m 48,3 km/h (6 Bft) 100,00 %
17.02.2022 00:52 12,7 C 11,7 C 8,9 C 92 % 994,2 hPa 0,0 l/m 0 min 0 min 0 W/m 48,3 km/h (6 Bft) 97,87 %
17.02.2022 00:54 12,7 C 11,7 C 8,9 C 91 % 993,9 hPa 0,0 l/m 0 min 0 min 0 W/m 22,5 km/h (4 Bft) 100,00 %
17.02.2022 00:56 12,7 C 11,7 C 8,9 C 91 % 994,0 hPa 0,0 l/m 0 min 0 min 0 W/m 25,7 km/h (4 Bft) 100,00 %
17.02.2022 00:58 12,6 C 11,7 C 8,9 C 91 % 993,9 hPa 0,0 l/m 0 min 0 min 0 W/m 25,7 km/h (4 Bft) 100,00 %
17.02.2022 01:00 12,6 C 11,7 C 8,9 C 91 % 994,0 hPa 0,0 l/m 0 min 0 min 0 W/m 35,4 km/h (5 Bft) 97,87 %
17.02.2022 01:02 12,7 C 11,7 C 8,9 C 91 % 994,1 hPa 0,0 l/m 0 min 0 min 0 W/m 25,7 km/h (4 Bft) 97,87 %
17.02.2022 01:04 12,7 C 11,7 C 8,9 C 91 % 994,2 hPa 0,0 l/m 0 min 2 min 0 W/m 35,4 km/h (5 Bft) 100,00 %
17.02.2022 01:06 12,7 C 11,7 C 8,9 C 91 % 993,8 hPa 0,0 l/m 0 min 2 min 0 W/m 25,7 km/h (4 Bft) 97,83 %
17.02.2022 01:08 12,7 C 11,7 C 8,9 C 91 % 993,8 hPa 0,0 l/m 0 min 2 min 0 W/m 29,0 km/h (5 Bft) 97,87 %
17.02.2022 01:10 12,6 C 11,7 C 8,9 C 91 % 993,8 hPa 0,2 l/m 0 min 2 min 0 W/m 19,3 km/h (3 Bft) 100,00 %
17.02.2022 01:12 12,6 C 11,7 C 8,9 C 92 % 993,7 hPa 0,0 l/m 0 min 2 min 0 W/m 19,3 km/h (3 Bft) 100,00 %
17.02.2022 01:14 12,5 C 11,7 C 8,9 C 92 % 993,7 hPa 0,0 l/m 0 min 2 min 0 W/m 29,0 km/h (5 Bft) 100,00 %
17.02.2022 01:16 12,4 C 11,7 C 8,9 C 92 % 993,7 hPa 0,0 l/m 0 min 2 min 0 W/m 25,7 km/h (4 Bft) 97,87 %
17.02.2022 01:18 12,4 C 11,7 C 8,9 C 92 % 993,8 hPa 0,0 l/m 0 min 2 min 0 W/m 22,5 km/h (4 Bft) 97,83 %
17.02.2022 01:20 12,4 C 11,1 C 8,9 C 92 % 993,8 hPa 0,0 l/m 0 min 2 min 0 W/m 19,3 km/h (3 Bft) 100,00 %
17.02.2022 01:22 12,4 C 11,1 C 8,9 C 92 % 993,7 hPa 0,2 l/m 0 min 2 min 0 W/m 41,8 km/h (6 Bft) 97,87 %
17.02.2022 01:24 12,3 C 11,1 C 8,3 C 93 % 993,6 hPa 0,0 l/m 0 min 2 min 0 W/m 22,5 km/h (4 Bft) 100,00 %
17.02.2022 01:26 12,3 C 10,6 C 8,3 C 93 % 993,5 hPa 0,0 l/m 0 min 2 min 0 W/m 22,5 km/h (4 Bft) 97,87 %
17.02.2022 01:28 12,3 C 10,6 C 8,3 C 93 % 993,5 hPa 0,2 l/m 0 min 2 min 0 W/m 25,7 km/h (4 Bft) 95,74 %
17.02.2022 01:30 12,2 C 10,6 C 8,3 C 93 % 993,3 hPa 0,0 l/m 0 min 2 min 0 W/m 19,3 km/h (3 Bft) 95,65 %
17.02.2022 01:32 12,2 C 11,1 C 8,3 C 93 % 993,3 hPa 0,0 l/m 0 min 0 min 0 W/m 22,5 km/h (4 Bft) 95,74 %
17.02.2022 01:34 12,2 C 11,1 C 8,3 C 93 % 994,1 hPa 0,0 l/m 0 min 2 min 0 W/m 41,8 km/h (6 Bft) 95,74 %
17.02.2022 01:36 12,3 C 11,1 C 8,3 C 93 % 993,6 hPa 0,0 l/m 0 min 2 min 0 W/m 48,3 km/h (6 Bft) 93,62 %
17.02.2022 01:38 12,3 C 11,1 C 8,3 C 93 % 993,6 hPa 0,0 l/m 0 min 2 min 0 W/m 22,5 km/h (4 Bft) 95,74 %
17.02.2022 01:40 12,3 C 11,1 C 8,3 C 93 % 993,7 hPa 0,0 l/m 0 min 2 min 0 W/m 29,0 km/h (5 Bft) 95,74 %
17.02.2022 01:42 12,3 C 11,1 C 8,3 C 93 % 993,6 hPa 0,0 l/m 0 min 2 min 0 W/m 22,5 km/h (4 Bft) 95,65 %
17.02.2022 01:44 12,2 C 11,1 C 8,3 C 93 % 993,8 hPa 0,0 l/m 0 min 2 min 0 W/m 41,8 km/h (6 Bft) 95,74 %
17.02.2022 01:46 12,2 C 11,1 C 8,3 C 93 % 993,8 hPa 0,0 l/m 0 min 2 min 0 W/m 35,4 km/h (5 Bft) 95,74 %
17.02.2022 01:48 12,2 C 11,1 C 8,3 C 93 % 993,9 hPa 0,0 l/m 0 min 2 min 0 W/m 29,0 km/h (5 Bft) 95,74 %
17.02.2022 01:50 12,1 C 10,6 C 8,3 C 93 % 993,8 hPa 0,0 l/m 0 min 2 min 0 W/m 38,6 km/h (5 Bft) 95,74 %
17.02.2022 01:52 12,1 C 10,6 C 8,3 C 93 % 993,9 hPa 0,0 l/m 0 min 2 min 0 W/m 29,0 km/h (5 Bft) 93,62 %
17.02.2022 01:54 12,1 C 10,6 C 8,3 C 94 % 993,9 hPa 0,2 l/m 0 min 2 min 0 W/m 25,7 km/h (4 Bft) 95,65 %
17.02.2022 01:56 12,1 C 10,6 C 8,3 C 94 % 993,8 hPa 0,0 l/m 0 min 2 min 0 W/m 29,0 km/h (5 Bft) 93,62 %
17.02.2022 01:58 12,0 C 10,6 C 8,3 C 94 % 993,8 hPa 0,2 l/m 0 min 2 min 0 W/m 25,7 km/h (4 Bft) 95,74 %
17.02.2022 02:00 11,9 C 10,6 C 8,3 C 94 % 993,9 hPa 0,0 l/m 0 min 2 min 0 W/m 25,7 km/h (4 Bft) 97,87 %
17.02.2022 02:02 11,8 C 10,6 C 8,3 C 94 % 994,1 hPa 0,2 l/m 0 min 2 min 0 W/m 19,3 km/h (3 Bft) 95,74 %
17.02.2022 02:04 11,8 C 10,0 C 8,3 C 94 % 993,9 hPa 0,2 l/m 0 min 2 min 0 W/m 25,7 km/h (4 Bft) 97,83 %
17.02.2022 02:06 11,8 C 10,0 C 8,3 C 94 % 993,8 hPa 0,0 l/m 0 min 2 min 0 W/m 25,7 km/h (4 Bft) 93,62 %
17.02.2022 02:08 11,7 C 10,0 C 8,3 C 95 % 994,0 hPa 0,2 l/m 0 min 2 min 0 W/m 32,2 km/h (5 Bft) 100,00 %
17.02.2022 02:10 11,7 C 10,0 C 8,3 C 95 % 993,9 hPa 0,2 l/m 0 min 2 min 0 W/m 25,7 km/h (4 Bft) 97,87 %
17.02.2022 02:12 11,6 C 10,0 C 8,3 C 95 % 993,8 hPa 0,0 l/m 0 min 2 min 0 W/m 12,9 km/h (3 Bft) 97,87 %
17.02.2022 02:14 11,6 C 10,0 C 8,3 C 95 % 994,0 hPa 0,0 l/m 0 min 0 min 0 W/m 32,2 km/h (5 Bft) 97,87 %
17.02.2022 02:16 11,6 C 10,0 C 8,3 C 95 % 994,0 hPa 0,0 l/m 0 min 0 min 0 W/m 32,2 km/h (5 Bft) 95,65 %
17.02.2022 02:18 11,5 C 10,0 C 8,3 C 95 % 993,9 hPa 0,0 l/m 0 min 0 min 0 W/m 29,0 km/h (5 Bft) 97,87 %
17.02.2022 02:20 11,5 C 10,0 C 8,3 C 95 % 994,0 hPa 0,0 l/m 0 min 0 min 0 W/m 38,6 km/h (5 Bft) 97,87 %
17.02.2022 02:22 11,6 C 10,0 C 8,3 C 95 % 993,8 hPa 0,0 l/m 0 min 0 min 0 W/m 29,0 km/h (5 Bft) 97,87 %
17.02.2022 02:24 11,6 C 10,6 C 8,3 C 95 % 993,9 hPa 0,0 l/m 0 min 0 min 0 W/m 22,5 km/h (4 Bft) 93,62 %
17.02.2022 02:26 11,6 C 10,6 C 8,3 C 95 % 993,8 hPa 0,0 l/m 0 min 0 min 0 W/m 22,5 km/h (4 Bft) 97,87 %
17.02.2022 02:28 11,6 C 10,6 C 8,3 C 95 % 993,9 hPa 0,0 l/m 0 min 0 min 0 W/m 35,4 km/h (5 Bft) 97,87 %
17.02.2022 02:30 11,6 C 10,6 C 8,3 C 94 % 994,0 hPa 0,0 l/m 0 min 2 min 0 W/m 32,2 km/h (5 Bft) 97,83 %
17.02.2022 02:32 11,6 C 10,6 C 8,3 C 94 % 994,0 hPa 0,2 l/m 0 min 2 min 0 W/m 25,7 km/h (4 Bft) 95,74 %
17.02.2022 02:34 11,6 C 10,6 C 8,3 C 94 % 994,1 hPa 0,0 l/m 0 min 2 min 0 W/m 41,8 km/h (6 Bft) 97,87 %
17.02.2022 02:36 11,6 C 10,6 C 8,3 C 94 % 994,0 hPa 0,0 l/m 0 min 2 min 0 W/m 48,3 km/h (6 Bft) 97,87 %
17.02.2022 02:38 11,6 C 10,6 C 7,8 C 94 % 994,2 hPa 0,0 l/m 0 min 2 min 0 W/m 22,5 km/h (4 Bft) 97,87 %
17.02.2022 02:40 11,6 C 10,6 C 7,8 C 94 % 994,2 hPa 0,0 l/m 0 min 2 min 0 W/m 29,0 km/h (5 Bft) 97,83 %
17.02.2022 02:42 11,6 C 10,6 C 7,8 C 94 % 994,1 hPa 0,0 l/m 0 min 2 min 0 W/m 35,4 km/h (5 Bft) 97,87 %
17.02.2022 02:44 11,6 C 10,6 C 7,8 C 94 % 994,3 hPa 0,0 l/m 0 min 2 min 0 W/m 22,5 km/h (4 Bft) 95,74 %
17.02.2022 02:46 11,5 C 10,0 C 7,8 C 94 % 994,6 hPa 0,2 l/m 0 min 2 min 0 W/m 22,5 km/h (4 Bft) 97,87 %
17.02.2022 02:48 11,4 C 10,0 C 7,8 C 94 % 994,5 hPa 0,0 l/m 0 min 2 min 0 W/m 29,0 km/h (5 Bft) 97,87 %
17.02.2022 02:50 11,4 C 10,0 C 7,8 C 94 % 994,5 hPa 0,2 l/m 0 min 2 min 0 W/m 19,3 km/h (3 Bft) 95,74 %
17.02.2022 02:52 11,4 C 10,0 C 7,8 C 94 % 994,6 hPa 0,0 l/m 0 min 2 min 0 W/m 19,3 km/h (3 Bft) 97,83 %
17.02.2022 02:54 11,3 C 10,0 C 7,8 C 94 % 994,6 hPa 0,0 l/m 0 min 2 min 0 W/m 25,7 km/h (4 Bft) 97,87 %
17.02.2022 02:56 11,3 C 10,0 C 7,8 C 94 % 994,6 hPa 0,2 l/m 0 min 2 min 0 W/m 25,7 km/h (4 Bft) 95,74 %
17.02.2022 02:58 11,2 C 10,0 C 7,8 C 94 % 994,8 hPa 0,0 l/m 0 min 2 min 0 W/m 38,6 km/h (5 Bft) 98,00 %
17.02.2022 03:00 11,2 C 10,0 C 7,8 C 94 % 994,9 hPa 0,0 l/m 0 min 2 min 0 W/m 25,7 km/h (4 Bft) 100,00 %
17.02.2022 03:02 11,2 C 10,0 C 7,8 C 94 % 995,1 hPa 0,2 l/m 0 min 2 min 0 W/m 19,3 km/h (3 Bft) 100,00 %
17.02.2022 03:04 11,2 C 10,0 C 7,8 C 95 % 994,9 hPa 0,0 l/m 0 min 2 min 0 W/m 19,3 km/h (3 Bft) 100,00 %
17.02.2022 03:06 11,1 C 9,4 C 7,8 C 94 % 995,1 hPa 0,4 l/m 0 min 2 min 0 W/m 32,2 km/h (5 Bft) 100,00 %
17.02.2022 03:08 11,1 C 9,4 C 7,8 C 94 % 995,0 hPa 0,0 l/m 0 min 2 min 0 W/m 22,5 km/h (4 Bft) 93,62 %
17.02.2022 03:10 11,1 C 9,4 C 7,8 C 95 % 995,2 hPa 0,0 l/m 0 min 2 min 0 W/m 19,3 km/h (3 Bft) 100,00 %
17.02.2022 03:12 10,9 C 9,4 C 7,8 C 94 % 995,1 hPa 0,0 l/m 0 min 2 min 0 W/m 38,6 km/h (5 Bft) 100,00 %
17.02.2022 03:14 10,9 C 9,4 C 7,2 C 94 % 995,4 hPa 0,0 l/m 0 min 2 min 0 W/m 38,6 km/h (5 Bft) 100,00 %
17.02.2022 03:16 10,8 C 9,4 C 7,2 C 94 % 995,0 hPa 0,0 l/m 0 min 2 min 0 W/m 35,4 km/h (5 Bft) 95,74 %
17.02.2022 03:18 10,8 C 9,4 C 7,2 C 93 % 995,0 hPa 0,0 l/m 0 min 2 min 0 W/m 45,1 km/h (6 Bft) 100,00 %
17.02.2022 03:20 10,9 C 10,0 C 7,2 C 93 % 995,0 hPa 0,0 l/m 0 min 2 min 0 W/m 45,1 km/h (6 Bft) 100,00 %
17.02.2022 03:22 10,9 C 10,0 C 7,2 C 93 % 995,2 hPa 0,0 l/m 0 min 2 min 0 W/m 35,4 km/h (5 Bft) 100,00 %
17.02.2022 03:24 10,9 C 10,0 C 7,2 C 93 % 995,4 hPa 0,0 l/m 0 min 0 min 0 W/m 32,2 km/h (5 Bft) 93,62 %
17.02.2022 03:26 10,9 C 10,0 C 7,2 C 93 % 995,2 hPa 0,0 l/m 0 min 0 min 0 W/m 22,5 km/h (4 Bft) 95,74 %
17.02.2022 03:28 10,9 C 10,0 C 7,2 C 93 % 995,0 hPa 0,2 l/m 0 min 0 min 0 W/m 41,8 km/h (6 Bft) 97,87 %
17.02.2022 03:30 11,0 C 10,0 C 7,2 C 92 % 995,0 hPa 0,0 l/m 0 min 0 min 0 W/m 38,6 km/h (5 Bft) 95,74 %
17.02.2022 03:32 11,0 C 10,0 C 7,2 C 91 % 995,2 hPa 0,0 l/m 0 min 0 min 0 W/m 29,0 km/h (5 Bft) 97,87 %
17.02.2022 03:34 11,0 C 10,0 C 7,2 C 91 % 995,1 hPa 0,0 l/m 0 min 0 min 0 W/m 22,5 km/h (4 Bft) 97,83 %
17.02.2022 03:36 11,0 C 10,0 C 7,2 C 91 % 995,2 hPa 0,0 l/m 0 min 0 min 0 W/m 25,7 km/h (4 Bft) 97,87 %
17.02.2022 03:38 11,0 C 10,0 C 7,2 C 90 % 995,3 hPa 0,0 l/m 0 min 0 min 0 W/m 45,1 km/h (6 Bft) 97,87 %
17.02.2022 03:40 11,0 C 10,0 C 7,2 C 90 % 995,3 hPa 0,0 l/m 0 min 2 min 0 W/m 25,7 km/h (4 Bft) 97,87 %
17.02.2022 03:42 11,0 C 10,0 C 7,2 C 89 % 995,8 hPa 0,0 l/m 0 min 2 min 0 W/m 35,4 km/h (5 Bft) 97,87 %
17.02.2022 03:44 10,9 C 9,4 C 6,7 C 89 % 995,8 hPa 0,0 l/m 0 min 2 min 0 W/m 35,4 km/h (5 Bft) 97,87 %
17.02.2022 03:46 10,8 C 9,4 C 6,7 C 89 % 995,8 hPa 0,2 l/m 0 min 2 min 0 W/m 38,6 km/h (5 Bft) 97,83 %
17.02.2022 03:48 10,7 C 9,4 C 6,7 C 90 % 995,9 hPa 0,0 l/m 0 min 2 min 0 W/m 35,4 km/h (5 Bft) 97,87 %
17.02.2022 03:50 10,6 C 9,4 C 6,7 C 90 % 996,2 hPa 0,0 l/m 0 min 2 min 0 W/m 38,6 km/h (5 Bft) 97,87 %
17.02.2022 03:52 10,5 C 9,4 C 6,7 C 90 % 996,5 hPa 0,0 l/m 0 min 2 min 0 W/m 45,1 km/h (6 Bft) 97,87 %
17.02.2022 03:54 10,4 C 9,4 C 6,7 C 90 % 996,2 hPa 0,0 l/m 0 min 0 min 0 W/m 45,1 km/h (6 Bft) 95,74 %
17.02.2022 03:56 10,4 C 9,4 C 6,7 C 90 % 996,2 hPa 0,0 l/m 0 min 0 min 0 W/m 35,4 km/h (5 Bft) 100,00 %
17.02.2022 03:58 10,3 C 9,4 C 6,7 C 90 % 996,3 hPa 0,0 l/m 0 min 0 min 0 W/m 35,4 km/h (5 Bft) 50,00 %
17.02.2022 04:00 10,3 C 9,4 C 6,7 C 90 % 996,1 hPa 0,0 l/m 0 min 0 min 0 W/m 29,0 km/h (5 Bft) 97,87 %
17.02.2022 04:02 10,3 C 9,4 C 6,7 C 90 % 996,2 hPa 0,0 l/m 0 min 0 min 0 W/m 25,7 km/h (4 Bft) 93,75 %
17.02.2022 04:04 10,3 C 9,4 C 6,7 C 90 % 996,3 hPa 0,0 l/m 0 min 0 min 0 W/m 54,7 km/h (7 Bft) 97,87 %
17.02.2022 04:06 10,3 C 9,4 C 6,7 C 89 % 996,5 hPa 0,0 l/m 0 min 0 min 0 W/m 25,7 km/h (4 Bft) 97,87 %
17.02.2022 04:08 10,3 C 9,4 C 6,7 C 89 % 996,6 hPa 0,0 l/m 0 min 0 min 0 W/m 29,0 km/h (5 Bft) 97,87 %
17.02.2022 04:10 10,3 C 9,4 C 6,7 C 89 % 996,5 hPa 0,0 l/m 0 min 0 min 0 W/m 38,6 km/h (5 Bft) 97,83 %
17.02.2022 04:12 10,3 C 9,4 C 6,1 C 89 % 996,6 hPa 0,0 l/m 0 min 0 min 0 W/m 29,0 km/h (5 Bft) 97,87 %
17.02.2022 04:14 10,3 C 9,4 C 6,1 C 89 % 996,6 hPa 0,0 l/m 0 min 0 min 0 W/m 45,1 km/h (6 Bft) 95,74 %
17.02.2022 04:16 10,3 C 9,4 C 6,1 C 88 % 996,7 hPa 0,0 l/m 0 min 0 min 0 W/m 38,6 km/h (5 Bft) 95,74 %
17.02.2022 04:18 10,3 C 9,4 C 6,1 C 88 % 996,8 hPa 0,0 l/m 0 min 0 min 0 W/m 25,7 km/h (4 Bft) 97,87 %
17.02.2022 04:20 10,4 C 10,0 C 6,1 C 88 % 996,8 hPa 0,0 l/m 0 min 0 min 0 W/m 41,8 km/h (6 Bft) 97,87 %
17.02.2022 04:22 10,4 C 10,0 C 6,1 C 87 % 996,9 hPa 0,0 l/m 0 min 0 min 0 W/m 22,5 km/h (4 Bft) 97,83 %
17.02.2022 04:24 10,5 C 10,0 C 6,1 C 87 % 996,9 hPa 0,0 l/m 0 min 0 min 0 W/m 25,7 km/h (4 Bft) 95,74 %
17.02.2022 04:26 10,5 C 9,4 C 6,1 C 87 % 997,0 hPa 0,0 l/m 0 min 0 min 0 W/m 22,5 km/h (4 Bft) 95,74 %
17.02.2022 04:28 10,5 C 9,4 C 6,1 C 86 % 997,0 hPa 0,0 l/m 0 min 0 min 0 W/m 38,6 km/h (5 Bft) 97,87 %
17.02.2022 04:30 10,6 C 10,0 C 6,1 C 85 % 997,2 hPa 0,0 l/m 0 min 0 min 0 W/m 29,0 km/h (5 Bft) 97,87 %
17.02.2022 04:32 10,6 C 10,0 C 6,1 C 85 % 997,0 hPa 0,0 l/m 0 min 0 min 0 W/m 48,3 km/h (6 Bft) 97,87 %
17.02.2022 04:34 10,6 C 10,0 C 6,1 C 84 % 997,3 hPa 0,0 l/m 0 min 0 min 0 W/m 38,6 km/h (5 Bft) 97,83 %
17.02.2022 04:36 10,7 C 10,0 C 6,1 C 84 % 997,5 hPa 0,0 l/m 0 min 0 min 0 W/m 41,8 km/h (6 Bft) 95,74 %
17.02.2022 04:38 10,6 C 10,0 C 6,1 C 83 % 997,1 hPa 0,0 l/m 0 min 0 min 0 W/m 35,4 km/h (5 Bft) 97,87 %
17.02.2022 04:40 10,6 C 10,0 C 5,6 C 83 % 997,4 hPa 0,0 l/m 0 min 0 min 0 W/m 41,8 km/h (6 Bft) 100,00 %
17.02.2022 04:42 10,6 C 10,0 C 5,6 C 82 % 997,6 hPa 0,0 l/m 0 min 0 min 0 W/m 41,8 km/h (6 Bft) 100,00 %
17.02.2022 04:44 10,6 C 10,0 C 5,6 C 81 % 997,6 hPa 0,0 l/m 0 min 0 min 0 W/m 48,3 km/h (6 Bft) 100,00 %
17.02.2022 04:46 10,6 C 10,0 C 5,6 C 80 % 997,8 hPa 0,0 l/m 0 min 0 min 0 W/m 32,2 km/h (5 Bft) 97,83 %
17.02.2022 04:48 10,6 C 10,0 C 5,6 C 79 % 997,9 hPa 0,0 l/m 0 min 0 min 0 W/m 61,2 km/h (7 Bft) 100,00 %
17.02.2022 04:50 10,6 C 10,0 C 5,6 C 78 % 997,8 hPa 0,0 l/m 0 min 0 min 0 W/m 41,8 km/h (6 Bft) 100,00 %
17.02.2022 04:52 10,6 C 10,0 C 5,6 C 79 % 997,6 hPa 0,0 l/m 0 min 0 min 0 W/m 41,8 km/h (6 Bft) 100,00 %
17.02.2022 04:54 10,6 C 9,4 C 5,0 C 78 % 997,7 hPa 0,0 l/m 0 min 0 min 0 W/m 41,8 km/h (6 Bft) 100,00 %
17.02.2022 04:56 10,6 C 9,4 C 5,0 C 78 % 997,7 hPa 0,0 l/m 0 min 0 min 0 W/m 38,6 km/h (5 Bft) 100,00 %
17.02.2022 04:58 10,6 C 9,4 C 5,0 C 78 % 997,6 hPa 0,0 l/m 0 min 0 min 0 W/m 35,4 km/h (5 Bft) 100,00 %
17.02.2022 05:00 10,5 C 9,4 C 5,0 C 78 % 997,6 hPa 0,0 l/m 0 min 0 min 0 W/m 38,6 km/h (5 Bft) 100,00 %
17.02.2022 05:02 10,5 C 9,4 C 5,0 C 78 % 997,6 hPa 0,0 l/m 0 min 0 min 0 W/m 38,6 km/h (5 Bft) 100,00 %
17.02.2022 05:04 10,5 C 10,0 C 5,0 C 78 % 997,6 hPa 0,0 l/m 0 min 0 min 0 W/m 48,3 km/h (6 Bft) 100,00 %
17.02.2022 05:06 10,5 C 10,0 C 5,0 C 78 % 997,5 hPa 0,0 l/m 0 min 0 min 0 W/m 29,0 km/h (5 Bft) 100,00 %
17.02.2022 05:08 10,5 C 10,0 C 5,6 C 78 % 997,6 hPa 0,0 l/m 0 min 0 min 0 W/m 29,0 km/h (5 Bft) 97,83 %
17.02.2022 05:10 10,5 C 10,0 C 6,1 C 78 % 997,8 hPa 0,0 l/m 0 min 0 min 0 W/m 38,6 km/h (5 Bft) 95,74 %
17.02.2022 05:12 10,6 C 10,0 C 6,7 C 78 % 997,5 hPa 0,0 l/m 0 min 0 min 0 W/m 41,8 km/h (6 Bft) 97,87 %
17.02.2022 05:14 10,7 C 10,0 C 6,7 C 78 % 997,8 hPa 0,0 l/m 0 min 0 min 0 W/m 35,4 km/h (5 Bft) 97,87 %
17.02.2022 05:16 10,7 C 10,0 C 6,7 C 78 % 998,0 hPa 0,0 l/m 0 min 0 min 0 W/m 22,5 km/h (4 Bft) 97,87 %
17.02.2022 05:18 10,7 C 10,0 C 6,7 C 78 % 997,8 hPa 0,0 l/m 0 min 0 min 0 W/m 25,7 km/h (4 Bft) 97,87 %
17.02.2022 05:20 10,7 C 10,0 C 6,7 C 79 % 998,0 hPa 0,0 l/m 0 min 0 min 0 W/m 35,4 km/h (5 Bft) 100,00 %
17.02.2022 05:22 10,7 C 10,0 C 6,7 C 79 % 998,5 hPa 0,0 l/m 0 min 0 min 0 W/m 25,7 km/h (4 Bft) 97,87 %
17.02.2022 05:24 10,6 C 10,0 C 6,7 C 79 % 998,1 hPa 0,0 l/m 0 min 0 min 0 W/m 22,5 km/h (4 Bft) 97,87 %
17.02.2022 05:26 10,6 C 10,0 C 6,7 C 79 % 998,2 hPa 0,0 l/m 0 min 0 min 0 W/m 32,2 km/h (5 Bft) 95,74 %
17.02.2022 05:28 10,6 C 10,0 C 6,7 C 79 % 998,2 hPa 0,0 l/m 0 min 0 min 0 W/m 29,0 km/h (5 Bft) 93,62 %
17.02.2022 05:30 10,6 C 10,0 C 6,7 C 79 % 998,4 hPa 0,0 l/m 0 min 0 min 0 W/m 25,7 km/h (4 Bft) 95,74 %
17.02.2022 05:32 10,6 C 9,4 C 6,7 C 79 % 998,4 hPa 0,0 l/m 0 min 0 min 0 W/m 38,6 km/h (5 Bft) 93,48 %
17.02.2022 05:34 10,5 C 9,4 C 6,7 C 79 % 998,3 hPa 0,0 l/m 0 min 0 min 0 W/m 45,1 km/h (6 Bft) 95,74 %
17.02.2022 05:36 10,5 C 10,0 C 6,7 C 79 % 998,6 hPa 0,0 l/m 0 min 0 min 0 W/m 45,1 km/h (6 Bft) 95,74 %
17.02.2022 05:38 10,6 C 10,0 C 6,7 C 78 % 998,8 hPa 0,0 l/m 0 min 0 min 0 W/m 29,0 km/h (5 Bft) 95,74 %
17.02.2022 05:40 10,6 C 10,0 C 6,7 C 78 % 998,5 hPa 0,0 l/m 0 min 0 min 0 W/m 35,4 km/h (5 Bft) 95,74 %
17.02.2022 05:42 10,6 C 10,0 C 6,7 C 78 % 998,6 hPa 0,0 l/m 0 min 2 min 0 W/m 35,4 km/h (5 Bft) 95,74 %
17.02.2022 05:44 10,6 C 10,0 C 6,7 C 78 % 998,7 hPa 0,0 l/m 0 min 0 min 0 W/m 41,8 km/h (6 Bft) 97,83 %
17.02.2022 05:46 10,6 C 10,0 C 6,7 C 78 % 998,7 hPa 0,0 l/m 0 min 2 min 0 W/m 35,4 km/h (5 Bft) 97,87 %
17.02.2022 05:48 10,5 C 9,4 C 6,7 C 78 % 998,7 hPa 0,0 l/m 0 min 0 min 0 W/m 41,8 km/h (6 Bft) 97,87 %
17.02.2022 05:50 10,4 C 9,4 C 6,7 C 78 % 998,8 hPa 0,0 l/m 0 min 0 min 0 W/m 32,2 km/h (5 Bft) 97,87 %
17.02.2022 05:52 10,4 C 9,4 C 6,7 C 78 % 998,8 hPa 0,0 l/m 0 min 0 min 0 W/m 32,2 km/h (5 Bft) 97,87 %
17.02.2022 05:54 10,4 C 9,4 C 6,7 C 77 % 998,8 hPa 0,0 l/m 0 min 0 min 0 W/m 38,6 km/h (5 Bft) 97,87 %
17.02.2022 05:56 10,4 C 10,0 C 6,7 C 77 % 998,9 hPa 0,0 l/m 0 min 0 min 0 W/m 48,3 km/h (6 Bft) 97,83 %
17.02.2022 05:58 10,5 C 10,0 C 6,7 C 76 % 998,6 hPa 0,0 l/m 0 min 0 min 0 W/m 51,5 km/h (7 Bft) 97,87 %
17.02.2022 06:00 10,5 C 10,0 C 6,7 C 76 % 998,8 hPa 0,0 l/m 0 min 0 min 0 W/m 29,0 km/h (5 Bft) 97,87 %
17.02.2022 06:02 10,6 C 10,0 C 6,7 C 76 % 998,7 hPa 0,0 l/m 0 min 0 min 0 W/m 38,6 km/h (5 Bft) 97,87 %
17.02.2022 06:04 10,6 C 10,0 C 6,7 C 76 % 999,1 hPa 0,0 l/m 0 min 0 min 0 W/m 35,4 km/h (5 Bft) 95,74 %
17.02.2022 06:08 10,5 C 9,4 C 6,7 C 76 % 999,1 hPa 0,0 l/m 0 min 0 min 0 W/m 35,4 km/h (5 Bft) 96,77 %
17.02.2022 06:10 10,5 C 9,4 C 6,1 C 77 % 999,3 hPa 0,0 l/m 0 min 2 min 0 W/m 35,4 km/h (5 Bft) 95,74 %
17.02.2022 06:12 10,4 C 9,4 C 5,6 C 78 % 999,3 hPa 0,0 l/m 0 min 2 min 0 W/m 32,2 km/h (5 Bft) 97,87 %
17.02.2022 06:14 10,3 C 9,4 C 5,6 C 78 % 999,1 hPa 0,0 l/m 0 min 2 min 0 W/m 19,3 km/h (3 Bft) 100,00 %
17.02.2022 06:16 10,3 C 9,4 C 5,6 C 79 % 999,3 hPa 0,0 l/m 0 min 2 min 0 W/m 32,2 km/h (5 Bft) 100,00 %
17.02.2022 06:18 10,2 C 9,4 C 5,6 C 79 % 999,2 hPa 0,0 l/m 0 min 2 min 0 W/m 35,4 km/h (5 Bft) 100,00 %
17.02.2022 06:20 10,2 C 9,4 C 5,6 C 79 % 999,1 hPa 0,0 l/m 0 min 0 min 0 W/m 32,2 km/h (5 Bft) 97,87 %
17.02.2022 06:22 10,2 C 9,4 C 6,1 C 79 % 999,3 hPa 0,0 l/m 0 min 0 min 0 W/m 22,5 km/h (4 Bft) 100,00 %
17.02.2022 06:24 10,2 C 9,4 C 6,1 C 79 % 999,3 hPa 0,0 l/m 0 min 0 min 0 W/m 25,7 km/h (4 Bft) 97,87 %
17.02.2022 06:26 10,1 C 9,4 C 6,1 C 79 % 999,3 hPa 0,0 l/m 0 min 0 min 0 W/m 25,7 km/h (4 Bft) 97,87 %
17.02.2022 06:28 10,1 C 9,4 C 6,1 C 79 % 999,3 hPa 0,0 l/m 0 min 0 min 0 W/m 32,2 km/h (5 Bft) 95,74 %
17.02.2022 06:30 10,1 C 9,4 C 6,7 C 79 % 999,3 hPa 0,0 l/m 0 min 0 min 0 W/m 41,8 km/h (6 Bft) 97,87 %
17.02.2022 06:32 10,2 C 9,4 C 6,1 C 79 % 999,3 hPa 0,0 l/m 0 min 0 min 0 W/m 25,7 km/h (4 Bft) 97,83 %
17.02.2022 06:34 10,1 C 9,4 C 6,1 C 79 % 999,5 hPa 0,0 l/m 0 min 0 min 0 W/m 32,2 km/h (5 Bft) 97,87 %
17.02.2022 06:36 10,1 C 9,4 C 6,1 C 79 % 999,2 hPa 0,0 l/m 0 min 0 min 0 W/m 48,3 km/h (6 Bft) 94,55 %
17.02.2022 06:38 10,1 C 9,4 C 6,1 C 79 % 999,5 hPa 0,0 l/m 0 min 0 min 0 W/m 41,8 km/h (6 Bft) 97,87 %
17.02.2022 06:40 10,1 C 9,4 C 6,1 C 79 % 999,5 hPa 0,0 l/m 0 min 0 min 0 W/m 41,8 km/h (6 Bft) 97,87 %
17.02.2022 06:42 10,1 C 9,4 C 6,1 C 79 % 999,5 hPa 0,0 l/m 0 min 0 min 0 W/m 38,6 km/h (5 Bft) 97,87 %
17.02.2022 06:44 10,1 C 9,4 C 6,1 C 78 % 999,6 hPa 0,0 l/m 0 min 0 min 0 W/m 41,8 km/h (6 Bft) 97,87 %
17.02.2022 06:46 10,1 C 9,4 C 6,1 C 78 % 999,7 hPa 0,0 l/m 0 min 0 min 0 W/m 19,3 km/h (3 Bft) 97,87 %
17.02.2022 06:48 10,1 C 9,4 C 6,1 C 78 % 999,6 hPa 0,0 l/m 0 min 0 min 0 W/m 41,8 km/h (6 Bft) 93,48 %
17.02.2022 06:50 10,1 C 9,4 C 6,1 C 78 % 999,7 hPa 0,0 l/m 0 min 0 min 0 W/m 45,1 km/h (6 Bft) 97,87 %
17.02.2022 06:52 10,1 C 9,4 C 6,1 C 78 % 999,7 hPa 0,0 l/m 0 min 0 min 0 W/m 22,5 km/h (4 Bft) 97,87 %
17.02.2022 06:54 10,1 C 9,4 C 6,1 C 78 % 999,7 hPa 0,0 l/m 0 min 0 min 0 W/m 25,7 km/h (4 Bft) 97,87 %
17.02.2022 06:56 10,1 C 9,4 C 6,1 C 78 % 999,9 hPa 0,0 l/m 0 min 0 min 0 W/m 25,7 km/h (4 Bft) 97,87 %
17.02.2022 06:58 10,1 C 9,4 C 6,1 C 78 % 1000,0 hPa 0,0 l/m 0 min 0 min 0 W/m 25,7 km/h (4 Bft) 97,87 %
17.02.2022 07:00 10,1 C 9,4 C 6,1 C 78 % 1000,1 hPa 0,0 l/m 0 min 0 min 0 W/m 35,4 km/h (5 Bft) 97,83 %
17.02.2022 07:02 10,1 C 9,4 C 6,1 C 77 % 1000,1 hPa 0,0 l/m 0 min 0 min 0 W/m 38,6 km/h (5 Bft) 97,87 %
17.02.2022 07:04 10,1 C 9,4 C 6,1 C 77 % 1000,4 hPa 0,0 l/m 0 min 0 min 0 W/m 38,6 km/h (5 Bft) 97,87 %
17.02.2022 07:06 10,1 C 9,4 C 6,1 C 76 % 1000,2 hPa 0,0 l/m 0 min 0 min 0 W/m 22,5 km/h (4 Bft) 93,62 %
17.02.2022 07:08 10,1 C 9,4 C 6,1 C 77 % 1000,0 hPa 0,0 l/m 0 min 0 min 0 W/m 29,0 km/h (5 Bft) 95,74 %
17.02.2022 07:10 10,1 C 9,4 C 6,1 C 76 % 1000,4 hPa 0,0 l/m 0 min 0 min 0 W/m 41,8 km/h (6 Bft) 97,87 %
17.02.2022 07:12 10,1 C 9,4 C 6,1 C 76 % 1000,3 hPa 0,0 l/m 0 min 0 min 0 W/m 41,8 km/h (6 Bft) 97,83 %
17.02.2022 07:14 10,1 C 9,4 C 6,1 C 75 % 1000,2 hPa 0,0 l/m 0 min 0 min 0 W/m 29,0 km/h (5 Bft) 97,87 %
17.02.2022 07:16 10,1 C 9,4 C 6,1 C 75 % 1000,3 hPa 0,0 l/m 0 min 0 min 0 W/m 41,8 km/h (6 Bft) 97,87 %
17.02.2022 07:18 10,1 C 9,4 C 6,1 C 75 % 1000,4 hPa 0,0 l/m 0 min 0 min 0 W/m 25,7 km/h (4 Bft) 93,62 %
17.02.2022 07:20 10,1 C 9,4 C 6,1 C 75 % 1000,4 hPa 0,0 l/m 0 min 0 min 0 W/m 38,6 km/h (5 Bft) 97,87 %
17.02.2022 07:22 10,1 C 9,4 C 6,1 C 74 % 1000,6 hPa 0,0 l/m 0 min 0 min 0 W/m 45,1 km/h (6 Bft) 97,87 %
17.02.2022 07:24 10,1 C 9,4 C 6,1 C 74 % 1000,6 hPa 0,0 l/m 0 min 0 min 0 W/m 48,3 km/h (6 Bft) 97,83 %
17.02.2022 07:26 10,2 C 9,4 C 6,7 C 73 % 1000,5 hPa 0,0 l/m 0 min 0 min 0 W/m 45,1 km/h (6 Bft) 97,87 %
17.02.2022 07:28 10,2 C 9,4 C 6,1 C 74 % 1000,5 hPa 0,0 l/m 0 min 0 min 0 W/m 41,8 km/h (6 Bft) 97,92 %
17.02.2022 07:30 10,1 C 9,4 C 6,1 C 73 % 1000,4 hPa 0,0 l/m 0 min 0 min 0 W/m 32,2 km/h (5 Bft) 95,74 %
17.02.2022 07:32 10,1 C 9,4 C 6,1 C 74 % 1000,5 hPa 0,0 l/m 0 min 0 min 0 W/m 32,2 km/h (5 Bft) 97,87 %
17.02.2022 07:34 10,1 C 9,4 C 6,1 C 74 % 1000,5 hPa 0,0 l/m 0 min 0 min 0 W/m 25,7 km/h (4 Bft) 97,83 %
17.02.2022 07:36 10,1 C 9,4 C 6,1 C 74 % 1000,5 hPa 0,0 l/m 0 min 0 min 0 W/m 32,2 km/h (5 Bft) 97,87 %
17.02.2022 07:38 10,1 C 9,4 C 6,1 C 74 % 1000,5 hPa 0,0 l/m 0 min 0 min 0 W/m 32,2 km/h (5 Bft) 97,87 %
17.02.2022 07:40 10,1 C 9,4 C 6,1 C 73 % 1000,5 hPa 0,0 l/m 0 min 0 min 0 W/m 48,3 km/h (6 Bft) 97,87 %
17.02.2022 07:42 10,2 C 9,4 C 6,1 C 73 % 1000,7 hPa 0,0 l/m 0 min 0 min 0 W/m 29,0 km/h (5 Bft) 97,92 %
17.02.2022 07:44 10,1 C 9,4 C 6,1 C 73 % 1000,8 hPa 0,0 l/m 0 min 0 min 0 W/m 41,8 km/h (6 Bft) 100,00 %
17.02.2022 07:46 10,1 C 9,4 C 6,1 C 73 % 1001,0 hPa 0,0 l/m 0 min 0 min 0 W/m 45,1 km/h (6 Bft) 100,00 %
17.02.2022 07:48 10,2 C 9,4 C 6,1 C 73 % 1000,8 hPa 0,0 l/m 0 min 0 min 0 W/m 41,8 km/h (6 Bft) 100,00 %
17.02.2022 07:50 10,2 C 9,4 C 6,1 C 73 % 1000,9 hPa 0,0 l/m 0 min 0 min 0 W/m 41,8 km/h (6 Bft) 100,00 %
17.02.2022 07:52 10,2 C 9,4 C 6,1 C 73 % 1000,9 hPa 0,0 l/m 0 min 0 min 0 W/m 32,2 km/h (5 Bft) 100,00 %
17.02.2022 07:54 10,1 C 9,4 C 6,1 C 73 % 1001,0 hPa 0,0 l/m 0 min 0 min 0 W/m 57,9 km/h (7 Bft) 100,00 %
17.02.2022 07:56 10,1 C 9,4 C 6,1 C 73 % 1001,2 hPa 0,0 l/m 0 min 0 min 0 W/m 25,7 km/h (4 Bft) 100,00 %
17.02.2022 07:58 10,1 C 9,4 C 6,1 C 74 % 1001,4 hPa 0,0 l/m 0 min 0 min 4 W/m 32,2 km/h (5 Bft) 100,00 %
17.02.2022 08:00 10,1 C 9,4 C 6,1 C 74 % 1001,3 hPa 0,0 l/m 0 min 0 min 6 W/m 29,0 km/h (5 Bft) 97,87 %
17.02.2022 08:02 10,0 C 9,4 C 6,1 C 73 % 1001,4 hPa 0,0 l/m 0 min 0 min 9 W/m 35,4 km/h (5 Bft) 100,00 %
17.02.2022 08:04 10,0 C 9,4 C 6,1 C 74 % 1001,5 hPa 0,0 l/m 0 min 0 min 7 W/m 61,2 km/h (7 Bft) 100,00 %
17.02.2022 08:06 10,0 C 9,4 C 6,1 C 73 % 1001,5 hPa 0,0 l/m 0 min 0 min 7 W/m 35,4 km/h (5 Bft) 100,00 %
17.02.2022 08:08 10,0 C 9,4 C 6,1 C 73 % 1001,6 hPa 0,0 l/m 0 min 0 min 9 W/m 45,1 km/h (6 Bft) 100,00 %
17.02.2022 08:10 10,0 C 9,4 C 6,1 C 73 % 1001,6 hPa 0,0 l/m 0 min 0 min 11 W/m 38,6 km/h (5 Bft) 100,00 %
17.02.2022 08:12 9,9 C 9,4 C 6,1 C 73 % 1001,7 hPa 0,0 l/m 0 min 0 min 16 W/m 35,4 km/h (5 Bft) 100,00 %
17.02.2022 08:14 9,9 C 9,4 C 6,1 C 73 % 1001,8 hPa 0,0 l/m 0 min 0 min 20 W/m 38,6 km/h (5 Bft) 97,87 %
17.02.2022 08:16 9,9 C 9,4 C 6,1 C 72 % 1001,7 hPa 0,0 l/m 0 min 0 min 19 W/m 51,5 km/h (7 Bft) 100,00 %
17.02.2022 08:18 9,9 C 9,4 C 6,1 C 72 % 1001,7 hPa 0,0 l/m 0 min 0 min 20 W/m 48,3 km/h (6 Bft) 95,74 %
17.02.2022 08:20 9,9 C 9,4 C 6,1 C 73 % 1002,0 hPa 0,0 l/m 0 min 0 min 25 W/m 32,2 km/h (5 Bft) 97,87 %
17.02.2022 08:22 9,9 C 9,4 C 6,1 C 73 % 1002,0 hPa 0,0 l/m 0 min 0 min 35 W/m 38,6 km/h (5 Bft) 95,65 %
17.02.2022 08:24 9,9 C 9,4 C 6,1 C 73 % 1002,2 hPa 0,0 l/m 0 min 0 min 21 W/m 38,6 km/h (5 Bft) 97,87 %
17.02.2022 08:26 9,9 C 9,4 C 6,1 C 73 % 1002,1 hPa 0,0 l/m 0 min 0 min 24 W/m 48,3 km/h (6 Bft) 97,87 %
17.02.2022 08:28 9,9 C 9,4 C 6,1 C 73 % 1002,0 hPa 0,0 l/m 0 min 0 min 30 W/m 35,4 km/h (5 Bft) 97,87 %
17.02.2022 08:30 9,9 C 9,4 C 6,1 C 73 % 1002,1 hPa 0,0 l/m 0 min 0 min 34 W/m 25,7 km/h (4 Bft) 97,87 %
17.02.2022 08:32 9,8 C 9,4 C 6,1 C 73 % 1002,2 hPa 0,0 l/m 0 min 0 min 43 W/m 25,7 km/h (4 Bft) 97,87 %
17.02.2022 08:34 9,8 C 9,4 C 6,1 C 72 % 1002,3 hPa 0,0 l/m 0 min 0 min 40 W/m 38,6 km/h (5 Bft) 97,83 %
17.02.2022 08:36 9,8 C 8,9 C 5,6 C 73 % 1002,4 hPa 0,0 l/m 0 min 0 min 30 W/m 22,5 km/h (4 Bft) 93,62 %
17.02.2022 08:38 9,8 C 8,9 C 5,6 C 73 % 1002,3 hPa 0,0 l/m 0 min 0 min 34 W/m 25,7 km/h (4 Bft) 97,87 %
17.02.2022 08:40 9,7 C 8,9 C 5,6 C 73 % 1002,5 hPa 0,0 l/m 0 min 0 min 52 W/m 45,1 km/h (6 Bft) 95,74 %
17.02.2022 08:42 9,8 C 9,4 C 5,6 C 73 % 1002,5 hPa 0,0 l/m 2 min 0 min 69 W/m 38,6 km/h (5 Bft) 97,87 %
17.02.2022 08:44 9,8 C 9,4 C 5,6 C 73 % 1002,6 hPa 0,0 l/m 0 min 0 min 55 W/m 35,4 km/h (5 Bft) 97,87 %
17.02.2022 08:46 9,8 C 9,4 C 6,1 C 73 % 1002,6 hPa 0,0 l/m 0 min 0 min 51 W/m 29,0 km/h (5 Bft) 97,83 %
17.02.2022 08:48 9,8 C 9,4 C 6,1 C 72 % 1002,7 hPa 0,0 l/m 0 min 0 min 44 W/m 38,6 km/h (5 Bft) 91,49 %
17.02.2022 08:50 9,8 C 9,4 C 5,6 C 73 % 1002,6 hPa 0,0 l/m 0 min 0 min 52 W/m 41,8 km/h (6 Bft) 97,87 %
17.02.2022 08:52 9,8 C 9,4 C 5,6 C 73 % 1002,7 hPa 0,0 l/m 0 min 0 min 45 W/m 51,5 km/h (7 Bft) 95,74 %
17.02.2022 08:54 9,8 C 9,4 C 5,6 C 73 % 1002,8 hPa 0,0 l/m 0 min 0 min 56 W/m 29,0 km/h (5 Bft) 97,87 %
17.02.2022 08:56 9,8 C 9,4 C 6,1 C 72 % 1002,7 hPa 0,0 l/m 0 min 0 min 70 W/m 48,3 km/h (6 Bft) 93,48 %
17.02.2022 08:58 9,8 C 9,4 C 6,1 C 72 % 1002,8 hPa 0,0 l/m 0 min 0 min 67 W/m 32,2 km/h (5 Bft) 97,87 %
17.02.2022 09:00 9,8 C 9,4 C 6,1 C 72 % 1002,9 hPa 0,0 l/m 0 min 0 min 75 W/m 38,6 km/h (5 Bft) 97,87 %
17.02.2022 09:02 9,8 C 9,4 C 6,1 C 72 % 1002,9 hPa 0,0 l/m 0 min 0 min 55 W/m 29,0 km/h (5 Bft) 95,74 %
17.02.2022 09:04 9,8 C 9,4 C 6,1 C 72 % 1002,9 hPa 0,0 l/m 0 min 0 min 68 W/m 29,0 km/h (5 Bft) 97,87 %
17.02.2022 09:06 9,8 C 9,4 C 6,1 C 72 % 1003,0 hPa 0,0 l/m 0 min 0 min 66 W/m 22,5 km/h (4 Bft) 95,74 %
17.02.2022 09:08 9,8 C 9,4 C 6,1 C 72 % 1003,1 hPa 0,0 l/m 0 min 0 min 76 W/m 22,5 km/h (4 Bft) 95,74 %
17.02.2022 09:10 9,8 C 9,4 C 6,1 C 73 % 1003,0 hPa 0,0 l/m 0 min 0 min 80 W/m 41,8 km/h (6 Bft) 95,65 %
17.02.2022 09:12 9,8 C 9,4 C 6,1 C 72 % 1003,1 hPa 0,0 l/m 0 min 0 min 64 W/m 25,7 km/h (4 Bft) 95,74 %
17.02.2022 09:14 9,8 C 9,4 C 6,1 C 73 % 1003,1 hPa 0,0 l/m 0 min 0 min 67 W/m 22,5 km/h (4 Bft) 95,74 %
17.02.2022 09:16 9,8 C 9,4 C 6,1 C 73 % 1003,0 hPa 0,0 l/m 0 min 0 min 73 W/m 35,4 km/h (5 Bft) 95,74 %
17.02.2022 09:18 9,8 C 9,4 C 6,1 C 73 % 1003,1 hPa 0,0 l/m 0 min 0 min 51 W/m 29,0 km/h (5 Bft) 85,11 %
17.02.2022 09:20 9,8 C 9,4 C 5,6 C 72 % 1003,0 hPa 0,0 l/m 0 min 0 min 43 W/m 41,8 km/h (6 Bft) 63,64 %
17.02.2022 09:22 9,8 C 9,4 C 5,6 C 72 % 1003,1 hPa 0,0 l/m 0 min 0 min 50 W/m 29,0 km/h (5 Bft) 95,74 %
17.02.2022 09:24 9,8 C 9,4 C 5,6 C 72 % 1003,2 hPa 0,0 l/m 0 min 0 min 86 W/m 38,6 km/h (5 Bft) 95,74 %
17.02.2022 09:26 9,8 C 9,4 C 5,6 C 73 % 1003,4 hPa 0,0 l/m 0 min 0 min 84 W/m 25,7 km/h (4 Bft) 97,87 %
17.02.2022 09:28 9,8 C 9,4 C 6,1 C 73 % 1003,4 hPa 0,0 l/m 0 min 0 min 78 W/m 32,2 km/h (5 Bft) 95,74 %
17.02.2022 09:30 9,8 C 9,4 C 5,6 C 73 % 1003,4 hPa 0,0 l/m 0 min 0 min 80 W/m 35,4 km/h (5 Bft) 95,74 %
17.02.2022 09:32 9,8 C 9,4 C 6,1 C 73 % 1003,3 hPa 0,0 l/m 0 min 0 min 95 W/m 48,3 km/h (6 Bft) 93,48 %
17.02.2022 09:34 9,8 C 10,0 C 6,1 C 72 % 1003,4 hPa 0,0 l/m 2 min 0 min 131 W/m 25,7 km/h (4 Bft) 93,62 %
17.02.2022 09:36 9,9 C 9,4 C 6,1 C 72 % 1003,4 hPa 0,0 l/m 0 min 0 min 66 W/m 32,2 km/h (5 Bft) 95,74 %
17.02.2022 09:38 9,9 C 9,4 C 6,1 C 72 % 1003,6 hPa 0,0 l/m 0 min 0 min 88 W/m 41,8 km/h (6 Bft) 95,74 %
17.02.2022 09:40 9,8 C 9,4 C 6,1 C 72 % 1003,5 hPa 0,0 l/m 0 min 0 min 101 W/m 61,2 km/h (7 Bft) 97,87 %
17.02.2022 09:42 9,9 C 9,4 C 6,1 C 72 % 1003,6 hPa 0,0 l/m 0 min 0 min 84 W/m 32,2 km/h (5 Bft) 94,29 %
17.02.2022 09:44 9,9 C 9,4 C 6,1 C 72 % 1003,7 hPa 0,0 l/m 0 min 0 min 123 W/m 38,6 km/h (5 Bft) 97,87 %
17.02.2022 09:46 9,9 C 9,4 C 6,1 C 72 % 1003,7 hPa 0,0 l/m 2 min 0 min 152 W/m 25,7 km/h (4 Bft) 97,87 %
17.02.2022 09:48 9,9 C 9,4 C 6,1 C 72 % 1003,8 hPa 0,0 l/m 0 min 0 min 124 W/m 35,4 km/h (5 Bft) 97,87 %
17.02.2022 09:50 10,0 C 10,0 C 6,1 C 70 % 1003,8 hPa 0,0 l/m 2 min 0 min 158 W/m 38,6 km/h (5 Bft) 95,74 %
17.02.2022 09:52 10,0 C 10,0 C 6,1 C 70 % 1003,7 hPa 0,0 l/m 2 min 0 min 157 W/m 35,4 km/h (5 Bft) 97,83 %
17.02.2022 09:54 10,1 C 10,0 C 6,1 C 71 % 1003,9 hPa 0,0 l/m 2 min 0 min 163 W/m 32,2 km/h (5 Bft) 100,00 %
17.02.2022 09:56 10,1 C 10,0 C 6,1 C 70 % 1003,8 hPa 0,0 l/m 0 min 0 min 115 W/m 38,6 km/h (5 Bft) 100,00 %
17.02.2022 09:58 10,1 C 10,6 C 6,1 C 70 % 1004,0 hPa 0,0 l/m 0 min 0 min 115 W/m 35,4 km/h (5 Bft) 100,00 %
17.02.2022 10:00 10,1 C 10,6 C 6,1 C 70 % 1004,0 hPa 0,0 l/m 0 min 0 min 135 W/m 45,1 km/h (6 Bft) 100,00 %
17.02.2022 10:02 10,1 C 10,6 C 6,1 C 70 % 1004,0 hPa 0,0 l/m 2 min 0 min 165 W/m 41,8 km/h (6 Bft) 100,00 %
17.02.2022 10:04 10,1 C 10,6 C 6,1 C 69 % 1003,9 hPa 0,0 l/m 2 min 0 min 164 W/m 41,8 km/h (6 Bft) 97,83 %
17.02.2022 10:06 10,1 C 10,6 C 6,1 C 69 % 1004,1 hPa 0,0 l/m 2 min 0 min 197 W/m 41,8 km/h (6 Bft) 100,00 %
17.02.2022 10:08 10,1 C 10,6 C 6,1 C 69 % 1004,2 hPa 0,0 l/m 0 min 0 min 109 W/m 32,2 km/h (5 Bft) 100,00 %
17.02.2022 10:10 10,1 C 11,1 C 6,1 C 70 % 1004,2 hPa 0,0 l/m 0 min 0 min 142 W/m 29,0 km/h (5 Bft) 100,00 %
17.02.2022 10:12 10,1 C 10,6 C 6,1 C 71 % 1004,3 hPa 0,0 l/m 2 min 0 min 262 W/m 22,5 km/h (4 Bft) 100,00 %
17.02.2022 10:14 10,1 C 10,0 C 6,1 C 71 % 1004,3 hPa 0,0 l/m 0 min 0 min 119 W/m 22,5 km/h (4 Bft) 100,00 %
17.02.2022 10:16 10,1 C 10,0 C 6,1 C 70 % 1004,5 hPa 0,0 l/m 0 min 0 min 116 W/m 38,6 km/h (5 Bft) 100,00 %
17.02.2022 10:18 10,0 C 10,0 C 6,1 C 68 % 1004,3 hPa 0,0 l/m 0 min 0 min 150 W/m 45,1 km/h (6 Bft) 100,00 %
17.02.2022 10:20 9,9 C 10,0 C 6,1 C 68 % 1004,4 hPa 0,0 l/m 0 min 0 min 129 W/m 35,4 km/h (5 Bft) 100,00 %
17.02.2022 10:22 9,9 C 10,6 C 6,1 C 69 % 1004,5 hPa 0,0 l/m 0 min 0 min 144 W/m 38,6 km/h (5 Bft) 100,00 %
17.02.2022 10:24 9,9 C 11,1 C 6,1 C 69 % 1004,6 hPa 0,0 l/m 0 min 0 min 156 W/m 29,0 km/h (5 Bft) 100,00 %
17.02.2022 10:26 10,0 C 10,6 C 6,1 C 70 % 1004,7 hPa 0,0 l/m 0 min 0 min 141 W/m 38,6 km/h (5 Bft) 100,00 %
17.02.2022 10:28 10,0 C 10,0 C 6,1 C 70 % 1004,5 hPa 0,0 l/m 0 min 0 min 117 W/m 32,2 km/h (5 Bft) 100,00 %
17.02.2022 10:30 9,9 C 9,4 C 6,1 C 70 % 1004,6 hPa 0,0 l/m 0 min 0 min 109 W/m 25,7 km/h (4 Bft) 100,00 %
17.02.2022 10:32 9,9 C 9,4 C 6,1 C 70 % 1004,7 hPa 0,0 l/m 0 min 0 min 121 W/m 25,7 km/h (4 Bft) 100,00 %
17.02.2022 10:34 9,9 C 9,4 C 6,1 C 70 % 1004,7 hPa 0,0 l/m 0 min 0 min 143 W/m 45,1 km/h (6 Bft) 100,00 %
17.02.2022 10:36 9,9 C 10,0 C 6,1 C 71 % 1004,8 hPa 0,0 l/m 0 min 0 min 170 W/m 32,2 km/h (5 Bft) 97,87 %
17.02.2022 10:38 9,9 C 11,7 C 6,1 C 70 % 1004,7 hPa 0,0 l/m 2 min 0 min 254 W/m 38,6 km/h (5 Bft) 100,00 %
17.02.2022 10:40 10,1 C 11,7 C 6,7 C 70 % 1004,8 hPa 0,0 l/m 2 min 0 min 376 W/m 32,2 km/h (5 Bft) 100,00 %
17.02.2022 10:42 10,1 C 10,6 C 6,1 C 69 % 1004,9 hPa 0,0 l/m 0 min 0 min 128 W/m 35,4 km/h (5 Bft) 100,00 %
17.02.2022 10:44 10,1 C 10,6 C 6,1 C 70 % 1005,0 hPa 0,0 l/m 0 min 0 min 169 W/m 29,0 km/h (5 Bft) 100,00 %
17.02.2022 10:46 10,1 C 10,0 C 6,1 C 69 % 1005,1 hPa 0,0 l/m 0 min 0 min 164 W/m 35,4 km/h (5 Bft) 100,00 %
17.02.2022 10:48 10,1 C 10,6 C 6,1 C 70 % 1005,2 hPa 0,0 l/m 0 min 0 min 107 W/m 32,2 km/h (5 Bft) 100,00 %
17.02.2022 10:50 10,1 C 11,7 C 6,1 C 68 % 1005,1 hPa 0,0 l/m 0 min 0 min 133 W/m 61,2 km/h (7 Bft) 100,00 %
17.02.2022 10:52 10,2 C 12,2 C 6,7 C 69 % 1005,2 hPa 0,0 l/m 2 min 0 min 308 W/m 25,7 km/h (4 Bft) 100,00 %
17.02.2022 10:54 10,3 C 13,3 C 6,7 C 69 % 1005,2 hPa 0,0 l/m 2 min 0 min 308 W/m 25,7 km/h (4 Bft) 100,00 %
17.02.2022 10:56 10,3 C 13,3 C 6,7 C 68 % 1005,1 hPa 0,0 l/m 2 min 0 min 351 W/m 32,2 km/h (5 Bft) 100,00 %
17.02.2022 10:58 10,5 C 14,4 C 7,2 C 68 % 1005,1 hPa 0,0 l/m 2 min 0 min 428 W/m 32,2 km/h (5 Bft) 100,00 %
17.02.2022 11:00 10,6 C 13,3 C 7,2 C 66 % 1005,2 hPa 0,0 l/m 2 min 0 min 476 W/m 41,8 km/h (6 Bft) 97,87 %
17.02.2022 11:02 10,6 C 14,4 C 7,2 C 68 % 1005,2 hPa 0,0 l/m 2 min 0 min 488 W/m 35,4 km/h (5 Bft) 97,87 %
17.02.2022 11:04 10,7 C 13,3 C 7,2 C 67 % 1005,3 hPa 0,0 l/m 2 min 0 min 472 W/m 29,0 km/h (5 Bft) 95,74 %
17.02.2022 11:06 10,7 C 13,9 C 7,8 C 67 % 1005,4 hPa 0,0 l/m 2 min 0 min 287 W/m 25,7 km/h (4 Bft) 97,87 %
17.02.2022 11:08 10,8 C 14,4 C 7,8 C 66 % 1005,4 hPa 0,0 l/m 2 min 0 min 287 W/m 48,3 km/h (6 Bft) 97,83 %
17.02.2022 11:10 10,7 C 12,2 C 7,8 C 66 % 1005,5 hPa 0,0 l/m 2 min 0 min 234 W/m 25,7 km/h (4 Bft) 95,74 %
17.02.2022 11:12 10,7 C 13,9 C 8,9 C 66 % 1005,5 hPa 0,0 l/m 2 min 0 min 342 W/m 38,6 km/h (5 Bft) 93,62 %
17.02.2022 11:14 10,8 C 13,9 C 8,9 C 66 % 1005,6 hPa 0,0 l/m 2 min 0 min 568 W/m 38,6 km/h (5 Bft) 95,74 %
17.02.2022 11:16 10,7 C 12,2 C 7,8 C 65 % 1005,5 hPa 0,0 l/m 2 min 0 min 293 W/m 57,9 km/h (7 Bft) 93,62 %
17.02.2022 11:18 10,7 C 12,8 C 8,3 C 65 % 1005,5 hPa 0,0 l/m 2 min 0 min 295 W/m 32,2 km/h (5 Bft) 95,74 %
17.02.2022 11:20 10,6 C 11,7 C 7,2 C 66 % 1005,6 hPa 0,0 l/m 2 min 0 min 453 W/m 35,4 km/h (5 Bft) 95,65 %
17.02.2022 11:22 10,6 C 12,2 C 7,8 C 66 % 1005,7 hPa 0,0 l/m 0 min 0 min 158 W/m 32,2 km/h (5 Bft) 95,74 %
17.02.2022 11:24 10,6 C 12,8 C 8,3 C 67 % 1005,7 hPa 0,0 l/m 2 min 0 min 220 W/m 25,7 km/h (4 Bft) 95,74 %
17.02.2022 11:26 10,7 C 12,8 C 8,3 C 67 % 1005,8 hPa 0,0 l/m 2 min 0 min 527 W/m 32,2 km/h (5 Bft) 95,74 %
17.02.2022 11:28 10,7 C 12,2 C 7,8 C 67 % 1005,8 hPa 0,0 l/m 2 min 0 min 239 W/m 35,4 km/h (5 Bft) 95,74 %
17.02.2022 11:30 10,6 C 12,2 C 7,8 C 66 % 1005,9 hPa 0,0 l/m 2 min 0 min 225 W/m 32,2 km/h (5 Bft) 91,49 %
17.02.2022 11:32 10,6 C 11,1 C 7,8 C 65 % 1005,9 hPa 0,0 l/m 2 min 0 min 254 W/m 32,2 km/h (5 Bft) 91,67 %
17.02.2022 11:34 10,6 C 12,2 C 7,8 C 66 % 1005,9 hPa 0,0 l/m 0 min 0 min 185 W/m 38,6 km/h (5 Bft) 95,74 %
17.02.2022 11:36 10,6 C 11,7 C 7,2 C 66 % 1006,0 hPa 0,0 l/m 0 min 0 min 178 W/m 38,6 km/h (5 Bft) 93,62 %
17.02.2022 11:38 10,6 C 11,7 C 7,8 C 67 % 1006,1 hPa 0,0 l/m 2 min 0 min 219 W/m 35,4 km/h (5 Bft) 95,74 %
17.02.2022 11:40 10,6 C 11,7 C 7,8 C 67 % 1006,1 hPa 0,0 l/m 2 min 0 min 390 W/m 29,0 km/h (5 Bft) 95,74 %
17.02.2022 11:42 10,6 C 11,1 C 7,2 C 66 % 1006,2 hPa 0,0 l/m 0 min 0 min 160 W/m 25,7 km/h (4 Bft) 95,65 %
17.02.2022 11:44 10,6 C 11,7 C 7,2 C 66 % 1006,1 hPa 0,0 l/m 2 min 0 min 295 W/m 35,4 km/h (5 Bft) 97,87 %
17.02.2022 11:46 10,6 C 12,8 C 7,8 C 65 % 1006,2 hPa 0,0 l/m 2 min 0 min 403 W/m 35,4 km/h (5 Bft) 93,62 %
17.02.2022 11:48 10,7 C 12,8 C 8,3 C 65 % 1006,3 hPa 0,0 l/m 0 min 0 min 210 W/m 41,8 km/h (6 Bft) 100,00 %
17.02.2022 11:50 10,8 C 12,2 C 7,8 C 64 % 1006,2 hPa 0,0 l/m 0 min 0 min 191 W/m 32,2 km/h (5 Bft) 100,00 %
17.02.2022 11:52 10,8 C 11,1 C 7,2 C 63 % 1006,3 hPa 0,0 l/m 0 min 0 min 203 W/m 41,8 km/h (6 Bft) 100,00 %
17.02.2022 11:54 10,7 C 11,7 C 7,8 C 63 % 1006,2 hPa 0,0 l/m 2 min 0 min 230 W/m 38,6 km/h (5 Bft) 100,00 %
17.02.2022 11:56 10,8 C 11,7 C 7,2 C 63 % 1006,1 hPa 0,0 l/m 2 min 0 min 232 W/m 35,4 km/h (5 Bft) 100,00 %
17.02.2022 11:58 10,8 C 12,8 C 7,8 C 63 % 1006,3 hPa 0,0 l/m 2 min 0 min 280 W/m 41,8 km/h (6 Bft) 100,00 %
17.02.2022 12:00 10,9 C 13,3 C 7,8 C 63 % 1006,4 hPa 0,0 l/m 2 min 0 min 414 W/m 38,6 km/h (5 Bft) 100,00 %
17.02.2022 12:02 11,1 C 13,3 C 8,3 C 63 % 1006,3 hPa 0,0 l/m 2 min 0 min 291 W/m 41,8 km/h (6 Bft) 100,00 %
17.02.2022 12:04 11,1 C 12,8 C 7,8 C 63 % 1006,3 hPa 0,0 l/m 0 min 0 min 201 W/m 45,1 km/h (6 Bft) 97,87 %
17.02.2022 12:08 11,2 C 12,2 C 7,8 C 64 % 1006,4 hPa 0,0 l/m 0 min 0 min 199 W/m 38,6 km/h (5 Bft) 100,00 %
17.02.2022 12:10 11,2 C 11,7 C 7,8 C 63 % 1006,4 hPa 0,0 l/m 0 min 0 min 146 W/m 25,7 km/h (4 Bft) 97,87 %
17.02.2022 12:12 11,1 C 11,7 C 7,8 C 62 % 1006,2 hPa 0,0 l/m 0 min 0 min 181 W/m 35,4 km/h (5 Bft) 100,00 %
17.02.2022 12:14 11,2 C 12,2 C 7,8 C 63 % 1006,4 hPa 0,0 l/m 0 min 0 min 216 W/m 51,5 km/h (7 Bft) 100,00 %
17.02.2022 12:16 11,3 C 12,2 C 7,8 C 63 % 1006,3 hPa 0,0 l/m 0 min 0 min 189 W/m 25,7 km/h (4 Bft) 100,00 %
17.02.2022 12:18 11,4 C 12,8 C 8,3 C 63 % 1006,3 hPa 0,0 l/m 0 min 0 min 214 W/m 51,5 km/h (7 Bft) 100,00 %
17.02.2022 12:20 11,5 C 12,8 C 8,9 C 63 % 1006,5 hPa 0,0 l/m 0 min 0 min 163 W/m 25,7 km/h (4 Bft) 97,87 %
17.02.2022 12:22 11,4 C 12,2 C 8,9 C 61 % 1006,4 hPa 0,0 l/m 2 min 0 min 233 W/m 32,2 km/h (5 Bft) 100,00 %
17.02.2022 12:24 11,4 C 12,8 C 9,4 C 61 % 1006,5 hPa 0,0 l/m 0 min 0 min 196 W/m 41,8 km/h (6 Bft) 100,00 %
17.02.2022 12:26 11,4 C 12,2 C 8,9 C 62 % 1006,6 hPa 0,0 l/m 0 min 0 min 192 W/m 35,4 km/h (5 Bft) 100,00 %
17.02.2022 12:28 11,3 C 13,3 C 8,9 C 61 % 1006,3 hPa 0,0 l/m 2 min 0 min 230 W/m 38,6 km/h (5 Bft) 97,87 %
17.02.2022 12:30 11,3 C 12,2 C 8,3 C 62 % 1006,4 hPa 0,0 l/m 0 min 0 min 203 W/m 25,7 km/h (4 Bft) 97,83 %
17.02.2022 12:32 11,2 C 11,7 C 8,3 C 62 % 1006,5 hPa 0,0 l/m 0 min 0 min 152 W/m 41,8 km/h (6 Bft) 97,87 %
17.02.2022 12:34 11,2 C 12,2 C 8,3 C 62 % 1006,5 hPa 0,0 l/m 2 min 0 min 281 W/m 41,8 km/h (6 Bft) 95,74 %
17.02.2022 12:36 11,2 C 13,3 C 8,3 C 62 % 1006,6 hPa 0,0 l/m 2 min 0 min 289 W/m 38,6 km/h (5 Bft) 97,87 %
17.02.2022 12:38 11,3 C 13,3 C 7,8 C 61 % 1006,7 hPa 0,0 l/m 2 min 0 min 283 W/m 48,3 km/h (6 Bft) 95,74 %
17.02.2022 12:40 11,3 C 12,2 C 7,8 C 61 % 1006,6 hPa 0,0 l/m 0 min 0 min 180 W/m 29,0 km/h (5 Bft) 97,87 %
17.02.2022 12:42 11,1 C 11,1 C 7,2 C 60 % 1006,6 hPa 0,0 l/m 0 min 0 min 139 W/m 35,4 km/h (5 Bft) 97,83 %
17.02.2022 12:44 11,0 C 10,6 C 7,2 C 61 % 1006,8 hPa 0,0 l/m 0 min 0 min 122 W/m 25,7 km/h (4 Bft) 97,87 %
17.02.2022 12:46 10,8 C 11,1 C 6,7 C 60 % 1006,8 hPa 0,0 l/m 0 min 0 min 122 W/m 35,4 km/h (5 Bft) 97,87 %
17.02.2022 12:48 10,8 C 11,7 C 6,7 C 61 % 1006,8 hPa 0,0 l/m 0 min 0 min 190 W/m 25,7 km/h (4 Bft) 97,87 %
17.02.2022 12:50 10,8 C 11,1 C 6,7 C 62 % 1006,9 hPa 0,0 l/m 0 min 0 min 97 W/m 29,0 km/h (5 Bft) 95,74 %
17.02.2022 12:52 10,7 C 11,1 C 6,7 C 61 % 1006,9 hPa 0,0 l/m 0 min 0 min 111 W/m 41,8 km/h (6 Bft) 95,74 %
17.02.2022 12:54 10,7 C 11,1 C 6,7 C 62 % 1007,0 hPa 0,0 l/m 0 min 0 min 134 W/m 45,1 km/h (6 Bft) 97,83 %
17.02.2022 12:56 10,6 C 10,6 C 6,7 C 62 % 1006,9 hPa 0,0 l/m 0 min 0 min 136 W/m 41,8 km/h (6 Bft) 97,87 %
17.02.2022 12:58 10,6 C 10,6 C 6,7 C 63 % 1007,0 hPa 0,0 l/m 0 min 0 min 150 W/m 38,6 km/h (5 Bft) 97,87 %
17.02.2022 13:00 10,5 C 10,6 C 6,7 C 62 % 1006,9 hPa 0,0 l/m 0 min 0 min 130 W/m 41,8 km/h (6 Bft) 97,87 %
17.02.2022 13:02 10,5 C 11,7 C 6,7 C 62 % 1006,9 hPa 0,0 l/m 2 min 0 min 438 W/m 32,2 km/h (5 Bft) 97,87 %
17.02.2022 13:04 10,5 C 10,6 C 6,7 C 62 % 1006,8 hPa 0,0 l/m 0 min 0 min 194 W/m 29,0 km/h (5 Bft) 97,87 %
17.02.2022 13:06 10,4 C 10,0 C 6,7 C 62 % 1006,8 hPa 0,0 l/m 0 min 0 min 122 W/m 29,0 km/h (5 Bft) 97,83 %
17.02.2022 13:08 10,4 C 10,6 C 6,1 C 62 % 1006,9 hPa 0,0 l/m 0 min 0 min 111 W/m 35,4 km/h (5 Bft) 93,62 %
17.02.2022 13:10 10,3 C 10,0 C 6,1 C 62 % 1007,0 hPa 0,0 l/m 0 min 0 min 95 W/m 38,6 km/h (5 Bft) 95,74 %
17.02.2022 13:12 10,3 C 11,7 C 6,1 C 62 % 1007,0 hPa 0,0 l/m 0 min 0 min 82 W/m 35,4 km/h (5 Bft) 93,62 %
17.02.2022 13:14 10,5 C 15,0 C 6,7 C 63 % 1007,0 hPa 0,0 l/m 2 min 0 min 415 W/m 22,5 km/h (4 Bft) 95,74 %
17.02.2022 13:16 10,7 C 15,0 C 6,7 C 63 % 1007,0 hPa 0,0 l/m 2 min 0 min 480 W/m 35,4 km/h (5 Bft) 93,62 %
17.02.2022 13:18 10,8 C 12,8 C 6,7 C 62 % 1007,1 hPa 0,0 l/m 2 min 0 min 255 W/m 32,2 km/h (5 Bft) 95,65 %
17.02.2022 13:20 10,8 C 12,2 C 6,7 C 63 % 1007,1 hPa 0,0 l/m 0 min 0 min 157 W/m 25,7 km/h (4 Bft) 95,74 %
17.02.2022 13:22 10,7 C 12,2 C 6,7 C 62 % 1007,1 hPa 0,0 l/m 2 min 0 min 295 W/m 29,0 km/h (5 Bft) 95,74 %
17.02.2022 13:24 10,7 C 11,1 C 6,7 C 63 % 1007,2 hPa 0,0 l/m 0 min 0 min 189 W/m 38,6 km/h (5 Bft) 97,87 %
17.02.2022 13:26 10,6 C 10,0 C 6,1 C 62 % 1007,2 hPa 0,0 l/m 0 min 0 min 78 W/m 35,4 km/h (5 Bft) 100,00 %
17.02.2022 13:28 10,4 C 10,0 C 6,1 C 62 % 1007,2 hPa 0,0 l/m 0 min 0 min 84 W/m 25,7 km/h (4 Bft) 97,87 %
17.02.2022 13:30 10,4 C 10,0 C 6,1 C 62 % 1007,2 hPa 0,0 l/m 0 min 0 min 123 W/m 29,0 km/h (5 Bft) 97,83 %
17.02.2022 13:32 10,3 C 10,0 C 6,1 C 63 % 1007,3 hPa 0,0 l/m 0 min 0 min 164 W/m 25,7 km/h (4 Bft) 97,92 %
17.02.2022 13:34 10,3 C 10,0 C 6,1 C 63 % 1007,3 hPa 0,0 l/m 0 min 0 min 166 W/m 29,0 km/h (5 Bft) 97,87 %
17.02.2022 13:36 10,3 C 10,6 C 6,1 C 64 % 1007,1 hPa 0,0 l/m 0 min 0 min 174 W/m 19,3 km/h (3 Bft) 97,87 %
17.02.2022 13:38 10,4 C 13,3 C 6,7 C 64 % 1007,1 hPa 0,0 l/m 2 min 0 min 307 W/m 22,5 km/h (4 Bft) 97,87 %
17.02.2022 13:40 10,6 C 15,0 C 6,7 C 65 % 1007,1 hPa 0,0 l/m 2 min 0 min 518 W/m 35,4 km/h (5 Bft) 97,83 %
17.02.2022 13:42 10,6 C 12,8 C 6,7 C 65 % 1007,1 hPa 0,0 l/m 2 min 0 min 426 W/m 25,7 km/h (4 Bft) 97,92 %
17.02.2022 13:44 10,6 C 11,1 C 6,1 C 64 % 1007,1 hPa 0,0 l/m 0 min 0 min 83 W/m 22,5 km/h (4 Bft) 97,87 %
17.02.2022 13:46 10,6 C 10,6 C 6,1 C 65 % 1007,1 hPa 0,0 l/m 0 min 0 min 71 W/m 16,1 km/h (3 Bft) 100,00 %
17.02.2022 13:48 10,4 C 10,0 C 6,1 C 65 % 1007,1 hPa 0,0 l/m 0 min 0 min 63 W/m 22,5 km/h (4 Bft) 95,74 %
17.02.2022 13:50 10,3 C 10,0 C 6,1 C 65 % 1006,8 hPa 0,0 l/m 0 min 0 min 64 W/m 29,0 km/h (5 Bft) 95,74 %
17.02.2022 13:52 10,3 C 10,0 C 6,1 C 66 % 1007,0 hPa 0,0 l/m 0 min 0 min 74 W/m 25,7 km/h (4 Bft) 97,83 %
17.02.2022 13:54 10,2 C 9,4 C 6,1 C 66 % 1007,0 hPa 0,0 l/m 0 min 0 min 85 W/m 25,7 km/h (4 Bft) 97,87 %
17.02.2022 13:56 10,1 C 9,4 C 6,1 C 67 % 1007,1 hPa 0,0 l/m 0 min 0 min 88 W/m 22,5 km/h (4 Bft) 97,87 %
17.02.2022 13:58 10,1 C 9,4 C 6,1 C 67 % 1007,2 hPa 0,0 l/m 0 min 0 min 90 W/m 22,5 km/h (4 Bft) 95,74 %
17.02.2022 14:00 10,1 C 9,4 C 6,1 C 68 % 1007,2 hPa 0,0 l/m 0 min 0 min 79 W/m 35,4 km/h (5 Bft) 97,87 %
17.02.2022 14:02 10,1 C 9,4 C 6,1 C 67 % 1007,2 hPa 0,0 l/m 0 min 0 min 83 W/m 25,7 km/h (4 Bft) 95,74 %
17.02.2022 14:04 10,1 C 9,4 C 6,1 C 67 % 1007,2 hPa 0,0 l/m 0 min 0 min 76 W/m 25,7 km/h (4 Bft) 97,14 %
17.02.2022 14:06 10,1 C 9,4 C 6,1 C 68 % 1007,2 hPa 0,0 l/m 0 min 0 min 67 W/m 29,0 km/h (5 Bft) 97,87 %
17.02.2022 14:08 10,0 C 9,4 C 5,6 C 71 % 1007,3 hPa 0,0 l/m 0 min 2 min 82 W/m 25,7 km/h (4 Bft) 97,87 %
17.02.2022 14:10 9,8 C 9,4 C 5,6 C 70 % 1007,1 hPa 0,0 l/m 0 min 2 min 87 W/m 38,6 km/h (5 Bft) 95,74 %
17.02.2022 14:12 9,7 C 9,4 C 5,6 C 70 % 1007,2 hPa 0,0 l/m 0 min 2 min 92 W/m 32,2 km/h (5 Bft) 93,48 %
17.02.2022 14:14 9,7 C 9,4 C 5,6 C 70 % 1007,3 hPa 0,0 l/m 0 min 2 min 111 W/m 41,8 km/h (6 Bft) 97,87 %
17.02.2022 14:16 9,6 C 9,4 C 5,6 C 70 % 1007,3 hPa 0,0 l/m 0 min 0 min 90 W/m 25,7 km/h (4 Bft) 95,74 %
17.02.2022 14:18 9,6 C 9,4 C 5,6 C 71 % 1007,3 hPa 0,0 l/m 0 min 0 min 86 W/m 41,8 km/h (6 Bft) 95,74 %
17.02.2022 14:20 9,5 C 8,9 C 5,6 C 71 % 1007,2 hPa 0,0 l/m 0 min 0 min 88 W/m 22,5 km/h (4 Bft) 97,87 %
17.02.2022 14:22 9,5 C 8,9 C 5,6 C 71 % 1007,4 hPa 0,0 l/m 0 min 0 min 70 W/m 19,3 km/h (3 Bft) 97,87 %
17.02.2022 14:24 9,5 C 8,9 C 5,6 C 71 % 1007,5 hPa 0,0 l/m 0 min 0 min 61 W/m 25,7 km/h (4 Bft) 97,83 %
17.02.2022 14:26 9,4 C 8,3 C 5,0 C 73 % 1007,4 hPa 0,0 l/m 0 min 2 min 74 W/m 22,5 km/h (4 Bft) 93,62 %
17.02.2022 14:28 9,3 C 8,3 C 4,4 C 74 % 1007,6 hPa 0,0 l/m 0 min 2 min 61 W/m 35,4 km/h (5 Bft) 95,74 %
17.02.2022 14:30 9,2 C 8,3 C 4,4 C 75 % 1007,7 hPa 0,0 l/m 0 min 2 min 49 W/m 41,8 km/h (6 Bft) 97,87 %
17.02.2022 14:32 9,0 C 7,8 C 3,9 C 77 % 1007,7 hPa 0,0 l/m 0 min 2 min 48 W/m 32,2 km/h (5 Bft) 97,87 %
17.02.2022 14:34 8,8 C 7,8 C 3,9 C 77 % 1007,6 hPa 0,2 l/m 0 min 2 min 43 W/m 35,4 km/h (5 Bft) 97,83 %
17.02.2022 14:36 8,7 C 7,8 C 3,3 C 78 % 1007,7 hPa 0,0 l/m 0 min 2 min 81 W/m 25,7 km/h (4 Bft) 100,00 %
17.02.2022 14:38 8,6 C 8,9 C 3,9 C 80 % 1007,6 hPa 0,0 l/m 0 min 2 min 121 W/m 32,2 km/h (5 Bft) 100,00 %
17.02.2022 14:40 8,5 C 10,6 C 3,9 C 81 % 1007,6 hPa 0,0 l/m 2 min 2 min 279 W/m 16,1 km/h (3 Bft) 100,00 %
17.02.2022 14:42 8,6 C 11,1 C 3,9 C 82 % 1007,6 hPa 0,0 l/m 2 min 2 min 393 W/m 25,7 km/h (4 Bft) 100,00 %
17.02.2022 14:44 8,6 C 11,7 C 4,4 C 82 % 1007,6 hPa 0,0 l/m 2 min 0 min 384 W/m 38,6 km/h (5 Bft) 100,00 %
17.02.2022 14:46 8,7 C 12,2 C 4,4 C 81 % 1007,5 hPa 0,0 l/m 2 min 2 min 389 W/m 29,0 km/h (5 Bft) 100,00 %
17.02.2022 14:48 8,8 C 12,8 C 4,4 C 81 % 1007,5 hPa 0,0 l/m 2 min 0 min 388 W/m 22,5 km/h (4 Bft) 100,00 %
17.02.2022 14:50 8,9 C 12,8 C 5,0 C 81 % 1007,4 hPa 0,0 l/m 2 min 0 min 372 W/m 19,3 km/h (3 Bft) 100,00 %
17.02.2022 14:52 9,1 C 12,2 C 5,0 C 81 % 1007,3 hPa 0,0 l/m 2 min 0 min 368 W/m 32,2 km/h (5 Bft) 100,00 %
17.02.2022 14:54 9,2 C 12,2 C 5,0 C 80 % 1007,3 hPa 0,0 l/m 2 min 0 min 368 W/m 19,3 km/h (3 Bft) 100,00 %
17.02.2022 14:56 9,3 C 12,2 C 5,0 C 80 % 1007,4 hPa 0,0 l/m 2 min 0 min 374 W/m 19,3 km/h (3 Bft) 100,00 %
17.02.2022 14:58 9,4 C 12,8 C 5,0 C 80 % 1007,5 hPa 0,0 l/m 2 min 0 min 366 W/m 25,7 km/h (4 Bft) 100,00 %
17.02.2022 15:00 9,5 C 12,8 C 5,0 C 80 % 1007,5 hPa 0,0 l/m 2 min 0 min 373 W/m 19,3 km/h (3 Bft) 100,00 %
17.02.2022 15:02 9,6 C 12,2 C 5,6 C 79 % 1007,6 hPa 0,0 l/m 2 min 0 min 378 W/m 22,5 km/h (4 Bft) 100,00 %
17.02.2022 15:04 9,7 C 12,2 C 5,6 C 78 % 1007,7 hPa 0,0 l/m 2 min 0 min 378 W/m 29,0 km/h (5 Bft) 100,00 %
17.02.2022 15:06 9,7 C 12,2 C 5,6 C 78 % 1007,7 hPa 0,0 l/m 2 min 0 min 378 W/m 16,1 km/h (3 Bft) 100,00 %
17.02.2022 15:08 9,8 C 12,2 C 5,6 C 78 % 1007,8 hPa 0,0 l/m 2 min 0 min 389 W/m 22,5 km/h (4 Bft) 100,00 %
17.02.2022 15:10 9,9 C 11,7 C 5,6 C 77 % 1007,8 hPa 0,0 l/m 2 min 0 min 402 W/m 35,4 km/h (5 Bft) 100,00 %
17.02.2022 15:12 10,1 C 12,8 C 6,1 C 76 % 1007,8 hPa 0,0 l/m 2 min 0 min 423 W/m 22,5 km/h (4 Bft) 100,00 %
17.02.2022 15:14 10,2 C 13,3 C 6,1 C 76 % 1007,8 hPa 0,0 l/m 2 min 0 min 407 W/m 29,0 km/h (5 Bft) 100,00 %
17.02.2022 15:16 10,4 C 12,8 C 6,1 C 75 % 1007,8 hPa 0,0 l/m 2 min 0 min 399 W/m 25,7 km/h (4 Bft) 97,83 %
17.02.2022 15:18 10,6 C 13,3 C 6,7 C 72 % 1007,9 hPa 0,0 l/m 2 min 0 min 398 W/m 38,6 km/h (5 Bft) 97,87 %
17.02.2022 15:20 10,7 C 12,8 C 6,7 C 69 % 1007,9 hPa 0,0 l/m 2 min 0 min 395 W/m 32,2 km/h (5 Bft) 97,87 %
17.02.2022 15:22 10,8 C 12,8 C 6,7 C 68 % 1007,9 hPa 0,0 l/m 2 min 0 min 387 W/m 38,6 km/h (5 Bft) 95,74 %
17.02.2022 15:24 10,8 C 12,8 C 6,7 C 66 % 1008,0 hPa 0,0 l/m 2 min 0 min 373 W/m 41,8 km/h (6 Bft) 97,87 %
17.02.2022 15:26 10,9 C 12,2 C 6,7 C 65 % 1008,1 hPa 0,0 l/m 2 min 0 min 332 W/m 22,5 km/h (4 Bft) 95,74 %
17.02.2022 15:28 10,9 C 12,8 C 6,7 C 65 % 1008,1 hPa 0,0 l/m 2 min 0 min 348 W/m 38,6 km/h (5 Bft) 95,65 %
17.02.2022 15:30 11,0 C 12,8 C 6,7 C 64 % 1008,1 hPa 0,0 l/m 2 min 0 min 376 W/m 35,4 km/h (5 Bft) 95,74 %
17.02.2022 15:32 11,0 C 12,8 C 6,7 C 64 % 1008,1 hPa 0,0 l/m 2 min 0 min 385 W/m 38,6 km/h (5 Bft) 97,87 %
17.02.2022 15:34 11,0 C 13,3 C 6,7 C 65 % 1008,2 hPa 0,0 l/m 2 min 0 min 395 W/m 41,8 km/h (6 Bft) 95,74 %
17.02.2022 15:36 11,0 C 13,3 C 6,7 C 65 % 1008,2 hPa 0,0 l/m 2 min 0 min 380 W/m 38,6 km/h (5 Bft) 97,87 %
17.02.2022 15:38 10,9 C 11,7 C 6,7 C 65 % 1008,3 hPa 0,0 l/m 2 min 0 min 328 W/m 22,5 km/h (4 Bft) 97,87 %
17.02.2022 15:41 10,8 C 12,2 C 6,1 C 66 % 1008,4 hPa 0,0 l/m 3 min 0 min 166 W/m 32,2 km/h (5 Bft) 97,14 %
17.02.2022 15:42 10,8 C 12,8 C 6,1 C 66 % 1008,4 hPa 0,0 l/m 1 min 0 min 311 W/m 25,7 km/h (4 Bft) 100,00 %
17.02.2022 15:44 10,8 C 12,8 C 6,1 C 64 % 1008,5 hPa 0,0 l/m 2 min 0 min 295 W/m 38,6 km/h (5 Bft) 95,74 %
17.02.2022 15:46 10,8 C 12,2 C 6,1 C 62 % 1008,5 hPa 0,0 l/m 2 min 0 min 252 W/m 35,4 km/h (5 Bft) 95,74 %
17.02.2022 15:48 10,7 C 11,7 C 6,1 C 63 % 1008,6 hPa 0,0 l/m 2 min 0 min 288 W/m 35,4 km/h (5 Bft) 95,74 %
17.02.2022 15:50 10,7 C 11,1 C 6,1 C 62 % 1008,6 hPa 0,0 l/m 2 min 0 min 281 W/m 41,8 km/h (6 Bft) 95,74 %
17.02.2022 15:52 10,6 C 10,6 C 6,1 C 63 % 1008,7 hPa 0,0 l/m 2 min 0 min 249 W/m 35,4 km/h (5 Bft) 95,65 %
17.02.2022 15:54 10,6 C 10,6 C 6,1 C 63 % 1008,7 hPa 0,0 l/m 2 min 0 min 225 W/m 25,7 km/h (4 Bft) 95,74 %
17.02.2022 15:56 10,6 C 10,6 C 6,1 C 64 % 1008,7 hPa 0,0 l/m 2 min 0 min 267 W/m 29,0 km/h (5 Bft) 93,62 %
17.02.2022 15:58 10,7 C 10,6 C 6,1 C 64 % 1008,8 hPa 0,0 l/m 2 min 0 min 286 W/m 38,6 km/h (5 Bft) 95,74 %
17.02.2022 16:00 10,7 C 10,6 C 6,1 C 64 % 1008,8 hPa 0,0 l/m 2 min 0 min 292 W/m 32,2 km/h (5 Bft) 95,74 %
17.02.2022 16:02 10,7 C 10,6 C 6,1 C 64 % 1008,9 hPa 0,0 l/m 2 min 0 min 252 W/m 29,0 km/h (5 Bft) 95,74 %
17.02.2022 16:04 10,7 C 10,0 C 6,1 C 64 % 1008,7 hPa 0,0 l/m 2 min 0 min 172 W/m 35,4 km/h (5 Bft) 95,65 %
17.02.2022 16:06 10,6 C 10,0 C 6,1 C 64 % 1008,9 hPa 0,0 l/m 2 min 0 min 145 W/m 38,6 km/h (5 Bft) 93,62 %
17.02.2022 16:08 10,6 C 10,0 C 6,1 C 65 % 1008,9 hPa 0,0 l/m 2 min 0 min 165 W/m 35,4 km/h (5 Bft) 97,87 %
17.02.2022 16:10 10,5 C 10,0 C 6,1 C 65 % 1008,9 hPa 0,0 l/m 2 min 0 min 163 W/m 32,2 km/h (5 Bft) 95,74 %
17.02.2022 16:12 10,5 C 10,0 C 6,1 C 65 % 1009,0 hPa 0,0 l/m 2 min 0 min 140 W/m 22,5 km/h (4 Bft) 95,74 %
17.02.2022 16:14 10,5 C 10,0 C 6,1 C 65 % 1009,0 hPa 0,0 l/m 0 min 0 min 97 W/m 61,2 km/h (7 Bft) 95,74 %
17.02.2022 16:16 10,3 C 10,0 C 5,6 C 63 % 1008,8 hPa 0,0 l/m 0 min 0 min 106 W/m 61,2 km/h (7 Bft) 97,83 %
17.02.2022 16:18 10,2 C 10,0 C 5,6 C 63 % 1009,0 hPa 0,0 l/m 0 min 0 min 100 W/m 48,3 km/h (6 Bft) 95,74 %
17.02.2022 16:20 10,2 C 10,0 C 5,6 C 63 % 1009,2 hPa 0,0 l/m 0 min 0 min 99 W/m 38,6 km/h (5 Bft) 95,74 %
17.02.2022 16:22 10,1 C 9,4 C 5,6 C 63 % 1009,2 hPa 0,0 l/m 0 min 0 min 99 W/m 35,4 km/h (5 Bft) 95,74 %
17.02.2022 16:24 10,0 C 9,4 C 5,6 C 63 % 1009,4 hPa 0,0 l/m 2 min 0 min 112 W/m 35,4 km/h (5 Bft) 95,74 %
17.02.2022 16:26 10,0 C 9,4 C 5,6 C 63 % 1009,4 hPa 0,0 l/m 2 min 0 min 118 W/m 45,1 km/h (6 Bft) 93,62 %
17.02.2022 16:28 10,0 C 9,4 C 5,6 C 62 % 1009,5 hPa 0,0 l/m 2 min 0 min 111 W/m 25,7 km/h (4 Bft) 93,48 %
17.02.2022 16:30 10,0 C 9,4 C 5,6 C 63 % 1009,6 hPa 0,0 l/m 2 min 0 min 108 W/m 35,4 km/h (5 Bft) 95,74 %
17.02.2022 16:32 10,0 C 9,4 C 5,6 C 63 % 1009,5 hPa 0,0 l/m 2 min 0 min 98 W/m 35,4 km/h (5 Bft) 93,75 %
17.02.2022 16:34 9,9 C 9,4 C 5,6 C 63 % 1009,5 hPa 0,0 l/m 0 min 0 min 89 W/m 38,6 km/h (5 Bft) 95,74 %
17.02.2022 16:36 9,9 C 9,4 C 5,6 C 63 % 1009,6 hPa 0,0 l/m 0 min 0 min 79 W/m 45,1 km/h (6 Bft) 97,87 %
17.02.2022 16:38 9,8 C 9,4 C 5,6 C 64 % 1009,7 hPa 0,0 l/m 0 min 0 min 77 W/m 19,3 km/h (3 Bft) 95,65 %
17.02.2022 16:40 9,8 C 9,4 C 5,6 C 64 % 1009,6 hPa 0,0 l/m 0 min 0 min 76 W/m 35,4 km/h (5 Bft) 97,87 %
17.02.2022 16:42 9,8 C 9,4 C 5,6 C 65 % 1009,9 hPa 0,0 l/m 0 min 0 min 76 W/m 25,7 km/h (4 Bft) 95,74 %
17.02.2022 16:44 9,7 C 9,4 C 5,0 C 65 % 1009,9 hPa 0,0 l/m 0 min 0 min 70 W/m 35,4 km/h (5 Bft) 97,87 %
17.02.2022 16:46 9,6 C 8,9 C 5,0 C 66 % 1009,9 hPa 0,0 l/m 0 min 0 min 65 W/m 29,0 km/h (5 Bft) 97,87 %
17.02.2022 16:48 9,6 C 8,9 C 5,0 C 66 % 1009,9 hPa 0,0 l/m 0 min 0 min 64 W/m 38,6 km/h (5 Bft) 97,87 %
17.02.2022 16:50 9,6 C 8,9 C 5,0 C 67 % 1010,0 hPa 0,0 l/m 0 min 0 min 61 W/m 29,0 km/h (5 Bft) 97,83 %
17.02.2022 16:52 9,4 C 8,9 C 5,0 C 67 % 1009,9 hPa 0,0 l/m 0 min 0 min 57 W/m 35,4 km/h (5 Bft) 97,87 %
17.02.2022 16:54 9,4 C 8,9 C 5,0 C 67 % 1010,0 hPa 0,0 l/m 0 min 0 min 55 W/m 35,4 km/h (5 Bft) 97,87 %
17.02.2022 16:56 9,4 C 8,9 C 5,0 C 67 % 1010,1 hPa 0,0 l/m 0 min 0 min 56 W/m 35,4 km/h (5 Bft) 97,87 %
17.02.2022 16:58 9,3 C 8,9 C 5,0 C 68 % 1010,1 hPa 0,0 l/m 0 min 0 min 54 W/m 35,4 km/h (5 Bft) 97,87 %
17.02.2022 17:00 9,3 C 8,9 C 5,0 C 67 % 1009,9 hPa 0,0 l/m 0 min 0 min 52 W/m 22,5 km/h (4 Bft) 95,74 %
17.02.2022 17:02 9,3 C 8,9 C 5,0 C 67 % 1010,0 hPa 0,0 l/m 0 min 0 min 51 W/m 25,7 km/h (4 Bft) 97,83 %
17.02.2022 17:04 9,2 C 8,3 C 5,0 C 67 % 1010,0 hPa 0,0 l/m 0 min 0 min 44 W/m 32,2 km/h (5 Bft) 97,67 %
17.02.2022 17:06 9,2 C 8,3 C 5,0 C 67 % 1010,2 hPa 0,0 l/m 0 min 0 min 38 W/m 29,0 km/h (5 Bft) 100,00 %
17.02.2022 17:08 9,2 C 8,3 C 5,0 C 67 % 1010,0 hPa 0,0 l/m 0 min 0 min 34 W/m 35,4 km/h (5 Bft) 100,00 %
17.02.2022 17:10 9,1 C 8,3 C 5,0 C 67 % 1010,1 hPa 0,0 l/m 0 min 0 min 33 W/m 29,0 km/h (5 Bft) 100,00 %
17.02.2022 17:12 9,1 C 8,3 C 5,0 C 67 % 1010,1 hPa 0,0 l/m 0 min 0 min 32 W/m 29,0 km/h (5 Bft) 100,00 %
17.02.2022 17:14 9,1 C 8,3 C 5,0 C 68 % 1010,3 hPa 0,0 l/m 0 min 0 min 29 W/m 22,5 km/h (4 Bft) 100,00 %
17.02.2022 17:16 9,1 C 8,3 C 5,0 C 68 % 1010,2 hPa 0,0 l/m 0 min 0 min 33 W/m 35,4 km/h (5 Bft) 100,00 %
17.02.2022 17:18 9,0 C 8,3 C 4,4 C 68 % 1010,3 hPa 0,0 l/m 0 min 0 min 32 W/m 38,6 km/h (5 Bft) 100,00 %
17.02.2022 17:20 9,0 C 8,3 C 4,4 C 68 % 1010,3 hPa 0,0 l/m 0 min 0 min 28 W/m 22,5 km/h (4 Bft) 97,87 %
17.02.2022 17:22 9,0 C 8,3 C 4,4 C 68 % 1010,3 hPa 0,0 l/m 0 min 0 min 26 W/m 22,5 km/h (4 Bft) 100,00 %
17.02.2022 17:24 9,0 C 8,3 C 4,4 C 68 % 1010,2 hPa 0,0 l/m 0 min 0 min 25 W/m 25,7 km/h (4 Bft) 100,00 %
17.02.2022 17:26 8,9 C 8,3 C 4,4 C 68 % 1010,3 hPa 0,0 l/m 0 min 0 min 24 W/m 22,5 km/h (4 Bft) 100,00 %
17.02.2022 17:28 8,9 C 8,3 C 4,4 C 68 % 1010,3 hPa 0,0 l/m 0 min 0 min 21 W/m 19,3 km/h (3 Bft) 95,74 %
17.02.2022 17:30 8,9 C 8,3 C 4,4 C 68 % 1010,4 hPa 0,0 l/m 0 min 0 min 19 W/m 25,7 km/h (4 Bft) 100,00 %
17.02.2022 17:32 8,9 C 8,3 C 4,4 C 68 % 1010,5 hPa 0,0 l/m 0 min 0 min 19 W/m 25,7 km/h (4 Bft) 100,00 %
17.02.2022 17:34 8,8 C 8,3 C 4,4 C 68 % 1010,5 hPa 0,0 l/m 0 min 0 min 19 W/m 22,5 km/h (4 Bft) 97,87 %
17.02.2022 17:36 8,8 C 8,3 C 4,4 C 68 % 1010,5 hPa 0,0 l/m 0 min 0 min 18 W/m 35,4 km/h (5 Bft) 100,00 %
17.02.2022 17:38 8,8 C 7,8 C 4,4 C 68 % 1010,5 hPa 0,0 l/m 0 min 0 min 17 W/m 29,0 km/h (5 Bft) 100,00 %
17.02.2022 17:40 8,8 C 7,8 C 4,4 C 68 % 1010,6 hPa 0,0 l/m 0 min 0 min 13 W/m 32,2 km/h (5 Bft) 100,00 %
17.02.2022 17:42 8,7 C 7,8 C 4,4 C 68 % 1010,5 hPa 0,0 l/m 0 min 0 min 11 W/m 32,2 km/h (5 Bft) 97,87 %
17.02.2022 17:44 8,7 C 7,8 C 4,4 C 68 % 1010,6 hPa 0,0 l/m 0 min 0 min 10 W/m 38,6 km/h (5 Bft) 97,83 %
17.02.2022 17:46 8,7 C 7,8 C 4,4 C 67 % 1010,7 hPa 0,0 l/m 0 min 0 min 8 W/m 38,6 km/h (5 Bft) 95,74 %
17.02.2022 17:48 8,7 C 7,8 C 4,4 C 67 % 1010,7 hPa 0,0 l/m 0 min 0 min 7 W/m 22,5 km/h (4 Bft) 97,87 %
17.02.2022 17:50 8,7 C 7,8 C 4,4 C 68 % 1010,7 hPa 0,0 l/m 0 min 0 min 5 W/m 22,5 km/h (4 Bft) 97,87 %
17.02.2022 17:52 8,6 C 7,8 C 4,4 C 67 % 1010,7 hPa 0,0 l/m 0 min 0 min 0 W/m 35,4 km/h (5 Bft) 97,87 %
17.02.2022 17:54 8,7 C 7,8 C 4,4 C 67 % 1010,7 hPa 0,0 l/m 0 min 0 min 0 W/m 35,4 km/h (5 Bft) 97,83 %
17.02.2022 17:56 8,7 C 7,8 C 4,4 C 67 % 1010,7 hPa 0,0 l/m 0 min 0 min 0 W/m 22,5 km/h (4 Bft) 97,87 %
17.02.2022 17:58 8,6 C 7,8 C 4,4 C 67 % 1010,8 hPa 0,0 l/m 0 min 0 min 0 W/m 32,2 km/h (5 Bft) 97,87 %
17.02.2022 18:00 8,6 C 7,8 C 4,4 C 67 % 1010,8 hPa 0,0 l/m 0 min 0 min 0 W/m 25,7 km/h (4 Bft) 97,87 %
17.02.2022 18:02 8,6 C 7,8 C 4,4 C 67 % 1010,9 hPa 0,0 l/m 0 min 0 min 0 W/m 22,5 km/h (4 Bft) 97,87 %
17.02.2022 18:04 8,6 C 7,8 C 4,4 C 67 % 1011,0 hPa 0,0 l/m 0 min 0 min 0 W/m 22,5 km/h (4 Bft) 97,87 %
17.02.2022 18:06 8,6 C 7,8 C 4,4 C 67 % 1010,9 hPa 0,0 l/m 0 min 0 min 0 W/m 25,7 km/h (4 Bft) 69,57 %
17.02.2022 18:08 8,5 C 7,8 C 3,9 C 67 % 1010,9 hPa 0,0 l/m 0 min 0 min 0 W/m 19,3 km/h (3 Bft) 80,85 %
17.02.2022 18:10 8,5 C 7,8 C 3,9 C 67 % 1011,0 hPa 0,0 l/m 0 min 0 min 0 W/m 22,5 km/h (4 Bft) 97,87 %
17.02.2022 18:12 8,4 C 7,8 C 3,9 C 68 % 1011,0 hPa 0,0 l/m 0 min 0 min 0 W/m 19,3 km/h (3 Bft) 95,74 %
17.02.2022 18:14 8,4 C 7,8 C 3,9 C 68 % 1011,0 hPa 0,0 l/m 0 min 0 min 0 W/m 16,1 km/h (3 Bft) 97,87 %
17.02.2022 18:16 8,4 C 7,8 C 3,9 C 68 % 1011,1 hPa 0,0 l/m 0 min 0 min 0 W/m 22,5 km/h (4 Bft) 100,00 %
17.02.2022 18:18 8,3 C 7,8 C 3,9 C 68 % 1011,1 hPa 0,0 l/m 0 min 0 min 0 W/m 19,3 km/h (3 Bft) 100,00 %
17.02.2022 18:20 8,3 C 7,8 C 3,9 C 68 % 1011,1 hPa 0,0 l/m 0 min 0 min 0 W/m 16,1 km/h (3 Bft) 95,74 %
17.02.2022 18:22 8,3 C 7,8 C 3,9 C 68 % 1011,3 hPa 0,0 l/m 0 min 0 min 0 W/m 19,3 km/h (3 Bft) 100,00 %
17.02.2022 18:24 8,3 C 7,8 C 3,9 C 67 % 1011,3 hPa 0,0 l/m 0 min 0 min 0 W/m 22,5 km/h (4 Bft) 100,00 %
17.02.2022 18:26 8,3 C 7,8 C 3,9 C 67 % 1011,4 hPa 0,0 l/m 0 min 0 min 0 W/m 22,5 km/h (4 Bft) 100,00 %
17.02.2022 18:28 8,3 C 7,8 C 3,9 C 67 % 1011,3 hPa 0,0 l/m 0 min 0 min 0 W/m 12,9 km/h (3 Bft) 97,87 %
17.02.2022 18:30 8,3 C 7,8 C 3,9 C 67 % 1011,4 hPa 0,0 l/m 0 min 0 min 0 W/m 12,9 km/h (3 Bft) 97,83 %
17.02.2022 18:32 8,3 C 7,8 C 3,9 C 67 % 1011,4 hPa 0,0 l/m 0 min 0 min 0 W/m 25,7 km/h (4 Bft) 97,87 %
17.02.2022 18:34 8,3 C 7,8 C 3,9 C 66 % 1011,4 hPa 0,0 l/m 0 min 0 min 0 W/m 22,5 km/h (4 Bft) 98,15 %
17.02.2022 18:36 8,3 C 7,8 C 3,9 C 66 % 1011,5 hPa 0,0 l/m 0 min 0 min 0 W/m 19,3 km/h (3 Bft) 97,83 %
17.02.2022 18:38 8,3 C 7,8 C 3,9 C 66 % 1011,6 hPa 0,0 l/m 0 min 0 min 0 W/m 19,3 km/h (3 Bft) 97,87 %
17.02.2022 18:40 8,4 C 7,8 C 3,9 C 65 % 1011,6 hPa 0,0 l/m 0 min 0 min 0 W/m 29,0 km/h (5 Bft) 95,74 %
17.02.2022 18:42 8,4 C 7,8 C 3,9 C 65 % 1011,7 hPa 0,0 l/m 0 min 0 min 0 W/m 22,5 km/h (4 Bft) 97,87 %
17.02.2022 18:44 8,4 C 7,8 C 3,9 C 65 % 1011,7 hPa 0,0 l/m 0 min 0 min 0 W/m 12,9 km/h (3 Bft) 97,87 %
17.02.2022 18:46 8,3 C 7,8 C 3,9 C 66 % 1011,6 hPa 0,0 l/m 0 min 0 min 0 W/m 16,1 km/h (3 Bft) 97,87 %
17.02.2022 18:48 8,3 C 7,8 C 3,9 C 66 % 1011,6 hPa 0,0 l/m 0 min 0 min 0 W/m 16,1 km/h (3 Bft) 97,83 %
17.02.2022 18:50 8,3 C 7,2 C 3,9 C 66 % 1011,7 hPa 0,0 l/m 0 min 0 min 0 W/m 16,1 km/h (3 Bft) 97,87 %
17.02.2022 18:52 8,3 C 7,2 C 3,9 C 65 % 1011,6 hPa 0,0 l/m 0 min 0 min 0 W/m 19,3 km/h (3 Bft) 97,87 %
17.02.2022 18:54 8,3 C 7,2 C 3,9 C 65 % 1011,7 hPa 0,0 l/m 0 min 0 min 0 W/m 12,9 km/h (3 Bft) 97,37 %
17.02.2022 18:56 8,3 C 7,2 C 3,9 C 65 % 1011,7 hPa 0,0 l/m 0 min 0 min 0 W/m 19,3 km/h (3 Bft) 95,92 %
17.02.2022 18:58 8,2 C 7,2 C 3,9 C 65 % 1011,6 hPa 0,0 l/m 0 min 0 min 0 W/m 19,3 km/h (3 Bft) 98,18 %
17.02.2022 19:00 8,2 C 7,2 C 3,9 C 65 % 1011,7 hPa 0,0 l/m 0 min 0 min 0 W/m 19,3 km/h (3 Bft) 95,65 %
17.02.2022 19:02 8,2 C 7,2 C 3,9 C 65 % 1011,8 hPa 0,0 l/m 0 min 0 min 0 W/m 12,9 km/h (3 Bft) 97,30 %
17.02.2022 19:04 8,2 C 7,2 C 3,9 C 65 % 1011,9 hPa 0,0 l/m 0 min 0 min 0 W/m 19,3 km/h (3 Bft) 98,00 %
17.02.2022 19:06 8,2 C 7,2 C 3,9 C 66 % 1011,8 hPa 0,0 l/m 0 min 0 min 0 W/m 16,1 km/h (3 Bft) 97,83 %
17.02.2022 19:08 8,1 C 7,2 C 3,9 C 66 % 1011,9 hPa 0,0 l/m 0 min 0 min 0 W/m 9,7 km/h (2 Bft) 95,74 %
17.02.2022 19:10 8,1 C 7,2 C 3,3 C 66 % 1011,9 hPa 0,0 l/m 0 min 0 min 0 W/m 16,1 km/h (3 Bft) 97,87 %
17.02.2022 19:12 8,1 C 7,2 C 3,3 C 66 % 1012,0 hPa 0,0 l/m 0 min 0 min 0 W/m 6,4 km/h (2 Bft) 100,00 %
17.02.2022 19:14 8,1 C 7,2 C 3,3 C 66 % 1011,9 hPa 0,0 l/m 0 min 0 min 0 W/m 6,4 km/h (2 Bft) 100,00 %
17.02.2022 19:16 8,0 C 7,2 C 3,3 C 66 % 1011,9 hPa 0,0 l/m 0 min 0 min 0 W/m 6,4 km/h (2 Bft) 97,83 %
17.02.2022 19:18 8,0 C 7,2 C 3,3 C 67 % 1011,8 hPa 0,0 l/m 0 min 0 min 0 W/m 6,4 km/h (2 Bft) 97,87 %
17.02.2022 19:20 7,9 C 7,2 C 3,3 C 67 % 1011,9 hPa 0,0 l/m 0 min 0 min 0 W/m 6,4 km/h (2 Bft) 95,74 %
17.02.2022 19:22 7,9 C 7,2 C 3,3 C 67 % 1011,8 hPa 0,0 l/m 0 min 0 min 0 W/m 6,4 km/h (2 Bft) 97,87 %
17.02.2022 19:24 7,9 C 7,2 C 3,3 C 67 % 1011,8 hPa 0,0 l/m 0 min 0 min 0 W/m 3,2 km/h (1 Bft) 97,87 %
17.02.2022 19:26 7,9 C 7,2 C 3,3 C 67 % 1011,8 hPa 0,0 l/m 0 min 0 min 0 W/m 6,4 km/h (2 Bft) 97,87 %
17.02.2022 19:28 7,9 C 7,2 C 3,3 C 67 % 1011,8 hPa 0,0 l/m 0 min 0 min 0 W/m 6,4 km/h (2 Bft) 97,83 %
17.02.2022 19:30 7,9 C 7,2 C 3,3 C 67 % 1011,7 hPa 0,0 l/m 0 min 0 min 0 W/m 3,2 km/h (1 Bft) 95,74 %
17.02.2022 19:32 7,9 C 7,2 C 3,3 C 67 % 1011,8 hPa 0,0 l/m 0 min 0 min 0 W/m 3,2 km/h (1 Bft) 97,87 %
17.02.2022 19:34 7,9 C 7,2 C 3,3 C 67 % 1011,8 hPa 0,0 l/m 0 min 0 min 0 W/m 3,2 km/h (1 Bft) 97,87 %
17.02.2022 19:36 7,9 C 7,2 C 3,3 C 67 % 1011,7 hPa 0,0 l/m 0 min 0 min 0 W/m 6,4 km/h (2 Bft) 95,74 %
17.02.2022 19:38 7,9 C 7,2 C 3,3 C 68 % 1011,6 hPa 0,0 l/m 0 min 0 min 0 W/m 3,2 km/h (1 Bft) 93,62 %
17.02.2022 19:40 7,8 C 7,2 C 3,3 C 68 % 1011,7 hPa 0,0 l/m 0 min 0 min 0 W/m 3,2 km/h (1 Bft) 95,65 %
17.02.2022 19:42 7,8 C 6,7 C 3,3 C 68 % 1011,7 hPa 0,0 l/m 0 min 0 min 0 W/m 0,0 km/h (0 Bft) 95,74 %
17.02.2022 19:44 7,8 C 6,7 C 3,3 C 68 % 1011,8 hPa 0,0 l/m 0 min 0 min 0 W/m 3,2 km/h (1 Bft) 95,74 %
17.02.2022 19:46 7,8 C 6,7 C 3,3 C 68 % 1011,8 hPa 0,0 l/m 0 min 0 min 0 W/m 3,2 km/h (1 Bft) 95,74 %
17.02.2022 19:48 7,8 C 6,7 C 3,3 C 68 % 1011,8 hPa 0,0 l/m 0 min 0 min 0 W/m 6,4 km/h (2 Bft) 95,74 %
17.02.2022 19:50 7,8 C 6,7 C 3,3 C 68 % 1011,8 hPa 0,0 l/m 0 min 0 min 0 W/m 3,2 km/h (1 Bft) 95,74 %
17.02.2022 19:52 7,8 C 6,7 C 3,3 C 68 % 1011,7 hPa 0,0 l/m 0 min 0 min 0 W/m 0,0 km/h (0 Bft) 93,48 %
17.02.2022 19:54 7,8 C 6,7 C 3,3 C 68 % 1011,8 hPa 0,0 l/m 0 min 0 min 0 W/m 6,4 km/h (2 Bft) 91,49 %
17.02.2022 19:56 7,7 C 6,7 C 3,3 C 68 % 1011,7 hPa 0,0 l/m 0 min 0 min 0 W/m 3,2 km/h (1 Bft) 95,74 %
17.02.2022 19:58 7,7 C 6,7 C 3,3 C 68 % 1011,7 hPa 0,0 l/m 0 min 0 min 0 W/m 3,2 km/h (1 Bft) 95,74 %
17.02.2022 20:00 7,7 C 6,7 C 3,3 C 68 % 1011,7 hPa 0,0 l/m 0 min 0 min 0 W/m 3,2 km/h (1 Bft) 95,74 %
17.02.2022 20:02 7,7 C 6,7 C 3,3 C 68 % 1011,6 hPa 0,0 l/m 0 min 0 min 0 W/m 3,2 km/h (1 Bft) 95,74 %
17.02.2022 20:04 7,7 C 6,7 C 3,3 C 68 % 1011,5 hPa 0,0 l/m 0 min 0 min 0 W/m 3,2 km/h (1 Bft) 95,65 %
17.02.2022 20:06 7,7 C 6,7 C 3,3 C 68 % 1011,5 hPa 0,0 l/m 0 min 0 min 0 W/m 3,2 km/h (1 Bft) 97,87 %
17.02.2022 20:08 7,7 C 6,7 C 3,3 C 68 % 1011,5 hPa 0,0 l/m 0 min 0 min 0 W/m 3,2 km/h (1 Bft) 97,87 %
17.02.2022 20:10 7,6 C 6,7 C 3,3 C 68 % 1011,6 hPa 0,0 l/m 0 min 0 min 0 W/m 6,4 km/h (2 Bft) 97,87 %
17.02.2022 20:12 7,6 C 6,7 C 3,3 C 68 % 1011,6 hPa 0,0 l/m 0 min 0 min 0 W/m 3,2 km/h (1 Bft) 100,00 %
17.02.2022 20:14 7,6 C 6,7 C 3,3 C 68 % 1011,5 hPa 0,0 l/m 0 min 0 min 0 W/m 3,2 km/h (1 Bft) 100,00 %
17.02.2022 20:16 7,6 C 6,7 C 3,3 C 68 % 1011,5 hPa 0,0 l/m 0 min 0 min 0 W/m 3,2 km/h (1 Bft) 100,00 %
17.02.2022 20:18 7,6 C 6,7 C 3,3 C 68 % 1011,4 hPa 0,0 l/m 0 min 0 min 0 W/m 6,4 km/h (2 Bft) 97,87 %
17.02.2022 20:20 7,6 C 6,7 C 2,8 C 68 % 1011,4 hPa 0,0 l/m 0 min 0 min 0 W/m 3,2 km/h (1 Bft) 100,00 %
17.02.2022 20:22 7,6 C 6,1 C 2,8 C 68 % 1011,4 hPa 0,0 l/m 0 min 0 min 0 W/m 3,2 km/h (1 Bft) 100,00 %
17.02.2022 20:24 7,5 C 6,1 C 2,8 C 68 % 1011,5 hPa 0,0 l/m 0 min 0 min 0 W/m 6,4 km/h (2 Bft) 100,00 %
17.02.2022 20:26 7,5 C 6,1 C 2,8 C 68 % 1011,5 hPa 0,0 l/m 0 min 0 min 0 W/m 3,2 km/h (1 Bft) 100,00 %
17.02.2022 20:28 7,4 C 6,1 C 2,8 C 68 % 1011,5 hPa 0,0 l/m 0 min 0 min 0 W/m 3,2 km/h (1 Bft) 100,00 %
17.02.2022 20:30 7,4 C 6,1 C 2,8 C 69 % 1011,5 hPa 0,0 l/m 0 min 0 min 0 W/m 3,2 km/h (1 Bft) 100,00 %
17.02.2022 20:32 7,4 C 6,1 C 2,8 C 69 % 1011,5 hPa 0,0 l/m 0 min 0 min 0 W/m 3,2 km/h (1 Bft) 100,00 %
17.02.2022 20:34 7,3 C 6,1 C 2,8 C 69 % 1011,4 hPa 0,0 l/m 0 min 0 min 0 W/m 3,2 km/h (1 Bft) 100,00 %
17.02.2022 20:36 7,3 C 6,1 C 2,8 C 69 % 1011,5 hPa 0,0 l/m 0 min 0 min 0 W/m 3,2 km/h (1 Bft) 95,74 %
17.02.2022 20:38 7,3 C 6,1 C 2,8 C 69 % 1011,4 hPa 0,0 l/m 0 min 0 min 0 W/m 3,2 km/h (1 Bft) 97,87 %
17.02.2022 20:40 7,3 C 6,1 C 2,8 C 69 % 1011,5 hPa 0,0 l/m 0 min 0 min 0 W/m 6,4 km/h (2 Bft) 100,00 %
17.02.2022 20:42 7,3 C 6,7 C 2,8 C 69 % 1011,5 hPa 0,0 l/m 0 min 0 min 0 W/m 22,5 km/h (4 Bft) 100,00 %
17.02.2022 20:44 7,3 C 6,7 C 2,8 C 69 % 1011,4 hPa 0,0 l/m 0 min 0 min 0 W/m 12,9 km/h (3 Bft) 97,87 %
17.02.2022 20:46 7,3 C 6,7 C 2,8 C 69 % 1011,4 hPa 0,0 l/m 0 min 0 min 0 W/m 12,9 km/h (3 Bft) 97,87 %
17.02.2022 20:48 7,3 C 6,7 C 2,8 C 69 % 1011,4 hPa 0,0 l/m 0 min 0 min 0 W/m 9,7 km/h (2 Bft) 97,87 %
17.02.2022 20:50 7,3 C 6,7 C 2,8 C 70 % 1011,5 hPa 0,0 l/m 0 min 0 min 0 W/m 6,4 km/h (2 Bft) 100,00 %
17.02.2022 20:52 7,3 C 6,7 C 2,8 C 70 % 1011,4 hPa 0,0 l/m 0 min 0 min 0 W/m 9,7 km/h (2 Bft) 97,83 %
17.02.2022 20:54 7,3 C 6,7 C 2,8 C 70 % 1011,4 hPa 0,0 l/m 0 min 0 min 0 W/m 6,4 km/h (2 Bft) 95,74 %
17.02.2022 20:56 7,4 C 6,7 C 2,8 C 71 % 1011,4 hPa 0,0 l/m 0 min 0 min 0 W/m 16,1 km/h (3 Bft) 97,87 %
17.02.2022 20:58 7,4 C 6,7 C 2,8 C 71 % 1011,4 hPa 0,0 l/m 0 min 0 min 0 W/m 12,9 km/h (3 Bft) 97,87 %
17.02.2022 21:03 7,4 C 6,7 C 2,8 C 73 % 1011,4 hPa 0,0 l/m 0 min 0 min 0 W/m 6,4 km/h (2 Bft) 100,00 %
17.02.2022 21:04 7,4 C 6,7 C 2,8 C 73 % 1011,4 hPa 0,0 l/m 0 min 0 min 0 W/m 6,4 km/h (2 Bft) 95,65 %
17.02.2022 21:06 7,5 C 6,7 C 2,8 C 73 % 1011,4 hPa 0,0 l/m 0 min 0 min 0 W/m 12,9 km/h (3 Bft) 97,87 %
17.02.2022 21:08 7,5 C 6,7 C 3,3 C 74 % 1011,4 hPa 0,0 l/m 0 min 0 min 0 W/m 12,9 km/h (3 Bft) 97,87 %
17.02.2022 21:10 7,6 C 6,7 C 3,3 C 74 % 1011,4 hPa 0,0 l/m 0 min 0 min 0 W/m 9,7 km/h (2 Bft) 95,74 %
17.02.2022 21:12 7,6 C 6,7 C 3,3 C 74 % 1011,4 hPa 0,0 l/m 0 min 0 min 0 W/m 16,1 km/h (3 Bft) 97,87 %
17.02.2022 21:14 7,6 C 6,7 C 3,3 C 74 % 1011,4 hPa 0,0 l/m 0 min 0 min 0 W/m 12,9 km/h (3 Bft) 97,83 %
17.02.2022 21:16 7,7 C 6,7 C 3,3 C 74 % 1011,5 hPa 0,0 l/m 0 min 0 min 0 W/m 12,9 km/h (3 Bft) 97,87 %
17.02.2022 21:18 7,7 C 7,2 C 3,3 C 74 % 1011,4 hPa 0,0 l/m 0 min 0 min 0 W/m 16,1 km/h (3 Bft) 95,74 %
17.02.2022 21:20 7,7 C 7,2 C 3,3 C 74 % 1011,4 hPa 0,0 l/m 0 min 0 min 0 W/m 12,9 km/h (3 Bft) 97,87 %
17.02.2022 21:22 7,8 C 7,2 C 3,3 C 74 % 1011,4 hPa 0,0 l/m 0 min 0 min 0 W/m 25,7 km/h (4 Bft) 94,34 %
17.02.2022 21:24 7,9 C 7,2 C 3,3 C 74 % 1011,4 hPa 0,0 l/m 0 min 0 min 0 W/m 12,9 km/h (3 Bft) 97,87 %
17.02.2022 21:26 7,9 C 7,2 C 3,3 C 73 % 1011,4 hPa 0,0 l/m 0 min 0 min 0 W/m 16,1 km/h (3 Bft) 93,62 %
17.02.2022 21:28 8,0 C 7,2 C 3,3 C 73 % 1011,3 hPa 0,0 l/m 0 min 0 min 0 W/m 12,9 km/h (3 Bft) 97,87 %
17.02.2022 21:30 8,0 C 7,2 C 3,3 C 73 % 1011,3 hPa 0,0 l/m 0 min 0 min 0 W/m 12,9 km/h (3 Bft) 97,87 %
17.02.2022 21:32 8,1 C 7,2 C 3,9 C 73 % 1011,2 hPa 0,0 l/m 0 min 0 min 0 W/m 22,5 km/h (4 Bft) 93,48 %
17.02.2022 21:34 8,1 C 7,2 C 3,9 C 73 % 1011,1 hPa 0,0 l/m 0 min 0 min 0 W/m 19,3 km/h (3 Bft) 95,74 %
17.02.2022 21:36 8,1 C 7,2 C 3,9 C 73 % 1011,2 hPa 0,0 l/m 0 min 0 min 0 W/m 16,1 km/h (3 Bft) 97,87 %
17.02.2022 21:38 8,2 C 7,2 C 3,9 C 72 % 1011,1 hPa 0,0 l/m 0 min 0 min 0 W/m 16,1 km/h (3 Bft) 97,87 %
17.02.2022 21:40 8,2 C 7,2 C 3,9 C 72 % 1011,2 hPa 0,0 l/m 0 min 0 min 0 W/m 12,9 km/h (3 Bft) 97,87 %
17.02.2022 21:42 8,2 C 7,2 C 3,9 C 72 % 1011,2 hPa 0,0 l/m 0 min 0 min 0 W/m 25,7 km/h (4 Bft) 97,87 %
17.02.2022 21:44 8,2 C 7,2 C 3,9 C 72 % 1011,2 hPa 0,0 l/m 0 min 0 min 0 W/m 12,9 km/h (3 Bft) 97,83 %
17.02.2022 21:46 8,2 C 7,2 C 3,9 C 72 % 1011,2 hPa 0,0 l/m 0 min 0 min 0 W/m 22,5 km/h (4 Bft) 97,87 %
17.02.2022 21:48 8,2 C 7,2 C 3,3 C 72 % 1011,2 hPa 0,0 l/m 0 min 0 min 0 W/m 19,3 km/h (3 Bft) 97,87 %
17.02.2022 21:50 8,2 C 7,2 C 3,3 C 73 % 1011,2 hPa 0,0 l/m 0 min 0 min 0 W/m 16,1 km/h (3 Bft) 97,87 %
17.02.2022 21:52 8,2 C 7,2 C 3,9 C 73 % 1011,3 hPa 0,0 l/m 0 min 0 min 0 W/m 32,2 km/h (5 Bft) 97,87 %
17.02.2022 21:54 8,2 C 7,2 C 3,9 C 73 % 1011,3 hPa 0,0 l/m 0 min 0 min 0 W/m 19,3 km/h (3 Bft) 100,00 %
17.02.2022 21:56 8,2 C 7,2 C 3,3 C 74 % 1011,3 hPa 0,0 l/m 0 min 0 min 0 W/m 16,1 km/h (3 Bft) 97,83 %
17.02.2022 21:58 8,2 C 7,2 C 3,3 C 74 % 1011,2 hPa 0,0 l/m 0 min 0 min 0 W/m 25,7 km/h (4 Bft) 95,74 %
17.02.2022 22:00 8,1 C 7,2 C 3,3 C 74 % 1011,3 hPa 0,0 l/m 0 min 0 min 0 W/m 29,0 km/h (5 Bft) 100,00 %
17.02.2022 22:02 8,1 C 7,2 C 3,3 C 75 % 1011,5 hPa 0,0 l/m 0 min 0 min 0 W/m 16,1 km/h (3 Bft) 100,00 %
17.02.2022 22:04 8,1 C 7,2 C 3,3 C 76 % 1011,6 hPa 0,0 l/m 0 min 0 min 0 W/m 22,5 km/h (4 Bft) 100,00 %
17.02.2022 22:06 7,9 C 6,7 C 3,3 C 76 % 1011,5 hPa 0,0 l/m 0 min 0 min 0 W/m 41,8 km/h (6 Bft) 100,00 %
17.02.2022 22:08 7,9 C 6,7 C 3,3 C 77 % 1011,5 hPa 0,0 l/m 0 min 0 min 0 W/m 22,5 km/h (4 Bft) 97,87 %
17.02.2022 22:10 7,9 C 6,7 C 3,3 C 77 % 1011,6 hPa 0,0 l/m 0 min 0 min 0 W/m 22,5 km/h (4 Bft) 100,00 %
17.02.2022 22:12 7,8 C 6,7 C 3,3 C 77 % 1011,5 hPa 0,0 l/m 0 min 0 min 0 W/m 16,1 km/h (3 Bft) 97,87 %
17.02.2022 22:14 7,8 C 6,7 C 3,3 C 78 % 1011,6 hPa 0,0 l/m 0 min 0 min 0 W/m 12,9 km/h (3 Bft) 47,37 %
17.02.2022 22:16 7,8 C 6,7 C 3,3 C 78 % 1011,6 hPa 0,0 l/m 0 min 0 min 0 W/m 16,1 km/h (3 Bft) 97,96 %
17.02.2022 22:18 7,7 C 6,7 C 3,3 C 79 % 1011,6 hPa 0,0 l/m 0 min 0 min 0 W/m 22,5 km/h (4 Bft) 97,87 %
17.02.2022 22:20 7,7 C 6,7 C 3,3 C 79 % 1011,6 hPa 0,0 l/m 0 min 0 min 0 W/m 16,1 km/h (3 Bft) 100,00 %
17.02.2022 22:22 7,7 C 6,7 C 3,3 C 80 % 1011,6 hPa 0,0 l/m 0 min 0 min 0 W/m 16,1 km/h (3 Bft) 97,87 %
17.02.2022 22:24 7,6 C 6,7 C 3,3 C 80 % 1011,6 hPa 0,0 l/m 0 min 0 min 0 W/m 12,9 km/h (3 Bft) 97,87 %
17.02.2022 22:26 7,6 C 6,7 C 3,3 C 81 % 1011,6 hPa 0,0 l/m 0 min 0 min 0 W/m 22,5 km/h (4 Bft) 95,65 %
17.02.2022 22:28 7,6 C 6,7 C 3,3 C 81 % 1011,6 hPa 0,0 l/m 0 min 0 min 0 W/m 22,5 km/h (4 Bft) 97,87 %
17.02.2022 22:30 7,6 C 6,7 C 3,3 C 81 % 1011,7 hPa 0,0 l/m 0 min 0 min 0 W/m 19,3 km/h (3 Bft) 97,87 %
17.02.2022 22:32 7,6 C 6,7 C 3,3 C 81 % 1011,8 hPa 0,0 l/m 0 min 0 min 0 W/m 16,1 km/h (3 Bft) 92,45 %
17.02.2022 22:34 7,6 C 6,7 C 3,3 C 81 % 1011,9 hPa 0,0 l/m 0 min 0 min 0 W/m 25,7 km/h (4 Bft) 97,87 %
17.02.2022 22:36 7,6 C 6,7 C 3,3 C 82 % 1011,9 hPa 0,0 l/m 0 min 0 min 0 W/m 16,1 km/h (3 Bft) 97,87 %
17.02.2022 22:38 7,6 C 6,7 C 3,3 C 82 % 1012,0 hPa 0,0 l/m 0 min 0 min 0 W/m 19,3 km/h (3 Bft) 97,87 %
17.02.2022 22:40 7,6 C 6,7 C 3,3 C 82 % 1011,8 hPa 0,0 l/m 0 min 0 min 0 W/m 16,1 km/h (3 Bft) 95,74 %
17.02.2022 22:42 7,6 C 6,7 C 3,3 C 82 % 1011,8 hPa 0,0 l/m 0 min 0 min 0 W/m 12,9 km/h (3 Bft) 97,87 %
17.02.2022 22:44 7,6 C 6,7 C 3,3 C 82 % 1011,8 hPa 0,0 l/m 0 min 0 min 0 W/m 19,3 km/h (3 Bft) 97,83 %
17.02.2022 22:46 7,6 C 6,7 C 3,3 C 82 % 1011,9 hPa 0,0 l/m 0 min 0 min 0 W/m 19,3 km/h (3 Bft) 95,74 %
17.02.2022 22:48 7,6 C 6,7 C 3,3 C 82 % 1011,8 hPa 0,0 l/m 0 min 0 min 0 W/m 19,3 km/h (3 Bft) 95,74 %
17.02.2022 22:50 7,6 C 6,7 C 3,3 C 82 % 1011,9 hPa 0,0 l/m 0 min 0 min 0 W/m 25,7 km/h (4 Bft) 97,87 %
17.02.2022 22:52 7,6 C 6,7 C 3,3 C 82 % 1011,9 hPa 0,0 l/m 0 min 0 min 0 W/m 16,1 km/h (3 Bft) 97,87 %
17.02.2022 22:54 7,6 C 6,7 C 3,3 C 83 % 1011,8 hPa 0,0 l/m 0 min 0 min 0 W/m 25,7 km/h (4 Bft) 97,87 %
17.02.2022 22:56 7,6 C 6,7 C 3,3 C 83 % 1011,8 hPa 0,0 l/m 0 min 0 min 0 W/m 19,3 km/h (3 Bft) 97,83 %
17.02.2022 22:58 7,7 C 6,7 C 3,3 C 83 % 1011,8 hPa 0,0 l/m 0 min 0 min 0 W/m 22,5 km/h (4 Bft) 97,87 %
17.02.2022 23:00 7,7 C 6,7 C 3,3 C 83 % 1011,7 hPa 0,0 l/m 0 min 0 min 0 W/m 9,7 km/h (2 Bft) 95,74 %
17.02.2022 23:02 7,6 C 6,7 C 3,3 C 83 % 1011,8 hPa 0,0 l/m 0 min 0 min 0 W/m 16,1 km/h (3 Bft) 95,92 %
17.02.2022 23:04 7,6 C 6,7 C 3,3 C 83 % 1011,9 hPa 0,0 l/m 0 min 0 min 0 W/m 22,5 km/h (4 Bft) 95,74 %
17.02.2022 23:06 7,6 C 6,7 C 3,3 C 83 % 1011,9 hPa 0,0 l/m 0 min 0 min 0 W/m 19,3 km/h (3 Bft) 95,65 %
17.02.2022 23:08 7,6 C 6,7 C 3,3 C 83 % 1011,9 hPa 0,0 l/m 0 min 0 min 0 W/m 16,1 km/h (3 Bft) 97,87 %
17.02.2022 23:10 7,6 C 6,7 C 3,3 C 83 % 1011,9 hPa 0,0 l/m 0 min 0 min 0 W/m 16,1 km/h (3 Bft) 100,00 %
17.02.2022 23:12 7,6 C 6,7 C 3,3 C 83 % 1011,8 hPa 0,0 l/m 0 min 0 min 0 W/m 16,1 km/h (3 Bft) 100,00 %
17.02.2022 23:14 7,5 C 6,7 C 3,3 C 83 % 1011,8 hPa 0,0 l/m 0 min 0 min 0 W/m 19,3 km/h (3 Bft) 97,87 %
17.02.2022 23:16 7,5 C 6,7 C 3,3 C 84 % 1011,8 hPa 0,0 l/m 0 min 0 min 0 W/m 12,9 km/h (3 Bft) 97,87 %
17.02.2022 23:18 7,4 C 6,7 C 2,8 C 84 % 1011,9 hPa 0,0 l/m 0 min 0 min 0 W/m 9,7 km/h (2 Bft) 94,44 %
17.02.2022 23:20 7,4 C 6,7 C 2,8 C 84 % 1011,9 hPa 0,0 l/m 0 min 0 min 0 W/m 12,9 km/h (3 Bft) 97,92 %
17.02.2022 23:22 7,4 C 6,7 C 2,8 C 84 % 1011,9 hPa 0,0 l/m 0 min 0 min 0 W/m 25,7 km/h (4 Bft) 95,74 %
17.02.2022 23:24 7,4 C 6,7 C 2,8 C 85 % 1012,0 hPa 0,0 l/m 0 min 0 min 0 W/m 16,1 km/h (3 Bft) 95,74 %
17.02.2022 23:26 7,4 C 6,7 C 3,3 C 85 % 1011,8 hPa 0,0 l/m 0 min 0 min 0 W/m 16,1 km/h (3 Bft) 95,74 %
17.02.2022 23:28 7,4 C 6,7 C 2,8 C 85 % 1011,8 hPa 0,0 l/m 0 min 0 min 0 W/m 19,3 km/h (3 Bft) 93,62 %
17.02.2022 23:30 7,4 C 6,7 C 3,3 C 85 % 1011,8 hPa 0,0 l/m 0 min 0 min 0 W/m 16,1 km/h (3 Bft) 93,62 %
17.02.2022 23:32 7,4 C 6,7 C 2,8 C 85 % 1011,8 hPa 0,0 l/m 0 min 0 min 0 W/m 16,1 km/h (3 Bft) 93,62 %
17.02.2022 23:34 7,4 C 6,7 C 2,8 C 86 % 1011,8 hPa 0,0 l/m 0 min 0 min 0 W/m 16,1 km/h (3 Bft) 93,62 %
17.02.2022 23:36 7,4 C 6,7 C 2,8 C 86 % 1011,8 hPa 0,0 l/m 0 min 0 min 0 W/m 12,9 km/h (3 Bft) 93,48 %
17.02.2022 23:38 7,4 C 6,1 C 2,8 C 86 % 1011,8 hPa 0,0 l/m 0 min 0 min 0 W/m 19,3 km/h (3 Bft) 95,74 %
17.02.2022 23:40 7,3 C 6,1 C 2,8 C 86 % 1011,9 hPa 0,0 l/m 0 min 0 min 0 W/m 12,9 km/h (3 Bft) 95,74 %
17.02.2022 23:42 7,3 C 6,1 C 2,8 C 86 % 1012,0 hPa 0,0 l/m 0 min 0 min 0 W/m 16,1 km/h (3 Bft) 93,62 %
17.02.2022 23:44 7,3 C 6,1 C 2,8 C 86 % 1011,9 hPa 0,0 l/m 0 min 0 min 0 W/m 16,1 km/h (3 Bft) 95,74 %
17.02.2022 23:46 7,3 C 6,1 C 2,8 C 87 % 1011,9 hPa 0,0 l/m 0 min 0 min 0 W/m 16,1 km/h (3 Bft) 93,62 %
17.02.2022 23:48 7,3 C 6,1 C 2,8 C 87 % 1011,9 hPa 0,0 l/m 0 min 0 min 0 W/m 16,1 km/h (3 Bft) 95,65 %
17.02.2022 23:50 7,3 C 6,1 C 2,8 C 87 % 1011,8 hPa 0,0 l/m 0 min 0 min 0 W/m 12,9 km/h (3 Bft) 95,74 %
17.02.2022 23:52 7,2 C 6,1 C 2,8 C 87 % 1011,9 hPa 0,0 l/m 0 min 0 min 0 W/m 16,1 km/h (3 Bft) 95,74 %
17.02.2022 23:54 7,2 C 6,1 C 2,8 C 87 % 1011,8 hPa 0,0 l/m 0 min 0 min 0 W/m 16,1 km/h (3 Bft) 97,87 %
17.02.2022 23:56 7,2 C 6,1 C 2,8 C 87 % 1011,8 hPa 0,0 l/m 0 min 0 min 0 W/m 12,9 km/h (3 Bft) 100,00 %
17.02.2022 23:58 7,2 C 6,1 C 2,8 C 87 % 1011,8 hPa 0,0 l/m 0 min 0 min 0 W/m 19,3 km/h (3 Bft) 97,87 %
_ Min-Zeit 23:52 20:22 20:20 12:42 01:30 - - - - 19:42 22:14
Minimum _ 7,2 C 6,1 C 2,8 C 60 % 993,3 hPa - - - - 0,0 km/h (0 Bft) 47,37 %
_ Max-Zeit 00:00 13:14 00:00 02:08 19:12 03:06 15:41 01:04 11:14 04:48 00:10
Maximum _ 12,9 C 15,0 C 9,4 C 95 % 1012,0 hPa 0,4 l/m 3 min 2 min 568 W/m 61,2 km/h
O-NO (7 Bft)
100,00 %
Durchschnitt _ 9,9 C 9,5 C 5,8 C 75 % 1004,5 hPa #3,8 l/m #3:32 h #2:58 h 165 W/m 28,5 km/h (4 Bft) 97,37 %
© 2022 W. Hausmann